[{"header": {"dx": 0.06612293990616946, "dy": 0.0552356325346848, "nx": 98, "ny": 59, "la1": 35.046912555036876, "la2": 31.78801023549047, "lo1": -121.43107172385933, "lo2": -114.95102361305473, "refTime": "2026040900", "parameterCategory": 1, "parameterNumber": 2}, "data": [8.73, 8.73, 8.73, 8.94, 8.94, 9.3, 9.3, 9.37, 9.59, 9.94, 9.86, 9.21, 10.04, 9.9, 9.75, 9.54, 9.68, 9.34, 9.39, 9.39, 9.39, 8.85, 5.15, 1.72, 0.0, 0.0, -0.96, -0.96, -0.96, -0.88, -1.05, 0.0, 0.0, 0.98, 2.0, 3.79, 4.43, 4.74, 5.49, 6.18, 6.44, 7.51, 9.48, 10.41, 11.72, 12.89, 14.51, 14.51, 13.89, 12.51, 11.26, 10.55, 10.68, 10.45, 10.7, 10.73, 11.18, 11.59, 11.59, 11.59, 11.51, 11.51, 11.06, 11.06, 11.06, 11.06, 11.51, 11.06, 11.05, 10.45, 9.97, 9.97, 9.54, 9.49, 8.8, 8.45, 8.49, 7.6, 7.15, 4.82, 3.35, 3.35, 3.9, 3.58, 3.39, 3.16, 4.43, 5.06, 5.37, 5.37, 4.42, 4.42, 3.6, 4.26, 4.26, 5.24, 6.11, 6.11, 8.73, 8.73, 9.21, 8.94, 8.94, 9.3, 9.3, 9.37, 9.59, 9.59, 9.3, 10.01, 9.65, 9.74, 10.21, 9.63, 8.77, 9.32, 8.85, 8.33, 9.54, 9.03, 6.9, 2.66, 0.0, 0.0, 0.0, -0.89, -1.72, -1.84, -1.84, -0.96, 0.0, 0.0, 1.83, 3.63, 4.29, 5.06, 4.95, 5.69, 7.06, 8.15, 9.42, 10.51, 12.09, 13.41, 13.8, 12.84, 11.25, 10.66, 10.0, 9.9, 10.18, 10.05, 10.62, 11.15, 11.18, 11.62, 11.62, 11.62, 11.59, 11.59, 11.15, 11.15, 11.15, 11.59, 11.59, 11.15, 10.6, 10.6, 9.97, 9.97, 10.14, 9.7, 9.35, 8.94, 8.49, 7.6, 7.15, 4.82, 3.35, 3.35, 3.9, 3.58, 3.39, 3.16, 4.43, 5.06, 5.37, 5.37, 4.42, 4.42, 3.6, 4.26, 4.26, 5.24, 6.11, 6.11, 8.73, 8.73, 9.21, 8.94, 8.94, 9.3, 9.3, 9.37, 9.59, 9.37, 8.73, 7.17, 9.4, 10.04, 9.34, 9.24, 9.06, 9.06, 8.99, 9.54, 8.3, 9.21, 8.0, 3.68, 0.0, 0.0, 0.0, -0.89, -1.72, -1.84, -1.72, -0.89, 0.0, 0.0, 1.99, 4.29, 4.16, 5.24, 5.49, 6.04, 7.52, 9.1, 11.06, 11.92, 12.64, 12.72, 11.87, 10.28, 9.04, 9.03, 8.95, 9.24, 9.54, 10.14, 10.18, 11.15, 11.15, 11.62, 11.62, 11.62, 11.62, 11.62, 11.15, 11.15, 11.59, 11.59, 11.59, 11.15, 10.7, 10.16, 9.7, 9.7, 10.25, 9.8, 9.83, 8.94, 8.0, 8.05, 6.21, 4.57, 2.84, 3.39, 3.13, 2.53, 1.8, 3.35, 4.01, 5.06, 4.58, 4.58, 3.33, 2.82, 3.55, 3.77, 4.42, 5.37, 6.18, 6.18, 8.73, 8.73, 8.94, 8.94, 8.94, 9.3, 9.37, 9.59, 9.59, 9.37, 7.86, 7.55, 8.93, 9.3, 9.05, 9.6, 9.49, 9.77, 9.36, 9.24, 9.24, 9.63, 9.04, 5.37, 0.89, 0.0, 0.0, -0.83, -0.83, -0.89, -0.89, -0.84, 0.0, 0.0, 1.25, 3.8, 4.96, 5.98, 6.0, 7.12, 9.11, 10.43, 11.19, 11.29, 11.14, 10.58, 10.04, 9.42, 8.95, 9.24, 8.91, 9.49, 9.7, 9.7, 10.25, 10.7, 11.15, 11.59, 11.62, 11.62, 11.62, 11.59, 11.15, 11.59, 11.59, 11.15, 11.15, 10.63, 10.63, 10.18, 10.25, 9.8, 9.8, 9.36, 9.39, 8.45, 6.7, 6.02, 5.51, 3.58, 2.53, 2.68, 1.4, 1.08, 1.99, 3.47, 4.29, 4.29, 3.72, 2.8, 2.8, 1.98, 2.47, 3.72, 4.58, 5.49, 5.82, 5.49, 8.38, 8.73, 8.94, 8.94, 8.94, 9.3, 9.37, 9.59, 9.94, 9.37, 8.19, 7.27, 8.22, 8.79, 9.05, 9.05, 9.27, 9.6, 9.42, 9.03, 9.6, 8.93, 9.04, 7.81, 3.4, 0.0, 0.0, 0.0, 0.0, 0.0, 0.0, 0.0, 0.0, 0.0, 1.28, 2.6, 3.92, 6.08, 7.13, 8.06, 8.86, 10.34, 10.12, 10.28, 9.66, 9.65, 9.6, 9.49, 9.75, 9.97, 9.97, 10.14, 10.25, 10.28, 10.73, 11.18, 11.18, 11.62, 11.62, 11.62, 11.62, 11.59, 11.15, 11.06, 11.06, 11.06, 10.6, 10.6, 10.6, 10.14, 9.7, 9.24, 8.82, 9.35, 8.45, 6.21, 4.98, 4.98, 4.82, 3.58, 2.97, 2.53, -0.0, -0.0, 1.7, 2.8, 3.47, 3.47, 2.6, 1.7, 0.88, 1.7, 1.84, 3.63, 4.74, 5.15, 5.15, 4.29, 8.38, 9.01, 9.21, 8.94, 8.94, 9.3, 9.37, 9.59, 9.37, 9.37, 8.19, 6.64, 7.59, 8.12, 9.2, 9.05, 9.65, 9.43, 9.04, 9.04, 8.73, 8.38, 8.49, 7.27, 3.87, 1.26, 0.0, 0.0, 0.0, 0.0, 0.0, 0.81, 1.68, 1.62, 2.21, 2.31, 4.01, 6.33, 7.13, 7.01, 7.13, 8.23, 8.22, 10.04, 10.04, 9.65, 10.0, 9.9, 10.25, 10.45, 10.45, 10.6, 10.7, 10.73, 11.18, 11.62, 11.62, 11.62, 11.62, 11.62, 11.18, 11.15, 11.15, 11.05, 11.05, 10.6, 10.6, 10.14, 10.14, 9.97, 9.49, 9.06, 8.56, 8.56, 7.85, 5.81, 4.34, 4.47, 4.47, 4.47, 3.35, 0.96, -0.0, -0.0, 0.96, 1.83, 2.76, 1.99, 0.96, -0.0, -0.0, 0.96, 1.83, 3.35, 4.43, 4.74, 4.29, 3.72, 8.65, 9.01, 9.01, 8.94, 8.94, 9.3, 9.37, 9.37, 9.08, 9.08, 7.86, 5.71, 7.35, 8.43, 9.77, 9.42, 9.65, 10.04, 9.67, 8.93, 9.27, 9.62, 8.6, 7.13, 3.45, 1.22, 0.0, 0.0, 0.0, 0.0, 0.0, 0.81, 2.47, 4.07, 3.95, 3.02, 4.01, 5.64, 6.16, 4.87, 5.6, 5.64, 7.24, 8.53, 9.66, 9.04, 9.65, 10.0, 10.0, 11.13, 11.13, 10.45, 11.06, 11.15, 11.59, 11.6, 11.62, 11.62, 11.62, 11.62, 11.18, 10.7, 10.7, 10.7, 10.6, 10.6, 10.14, 9.54, 9.54, 9.75, 9.24, 9.06, 8.63, 8.77, 7.85, 6.51, 5.29, 4.47, 4.47, 2.8, 0.98, -0.0, -1.08, -0.0, -0.0, -0.0, -0.0, -0.0, -0.0, -0.0, -0.0, 0.87, 2.2, 2.76, 3.63, 3.47, 3.47, 2.6, 8.65, 9.01, 9.01, 9.21, 8.94, 9.3, 9.37, 9.37, 9.08, 8.82, 6.67, 4.47, 6.32, 8.12, 10.55, 9.27, 10.4, 11.2, 10.87, 10.29, 9.66, 10.15, 11.28, 10.66, 6.53, 2.33, 0.0, 0.0, 0.0, 0.0, 0.0, 0.0, 2.28, 4.9, 4.5, 3.85, 3.95, 4.0, 4.96, 3.77, 4.72, 4.72, 5.64, 5.92, 6.24, 7.27, 8.06, 9.05, 9.65, 11.03, 9.9, 10.68, 11.18, 11.36, 11.36, 11.51, 11.51, 11.59, 11.59, 11.62, 11.18, 10.73, 10.73, 10.73, 10.7, 10.6, 9.97, 9.24, 9.36, 9.9, 10.18, 9.97, 9.8, 8.94, 8.49, 7.56, 6.65, 5.81, 4.47, 1.9, -1.98, -2.84, -2.98, -2.54, -2.0, -2.0, -1.9, -2.21, -2.21, -1.4, -0.0, -0.0, 0.96, 1.99, 2.6, 2.6, 1.84, 1.84, 8.65, 8.65, 9.01, 9.01, 8.94, 9.3, 9.37, 9.37, 9.08, 8.5, 6.06, 4.05, 5.92, 7.1, 8.85, 9.69, 10.01, 10.9, 11.26, 10.41, 9.66, 10.41, 11.41, 12.96, 11.6, 7.56, 1.25, 0.0, 0.0, 0.0, 0.0, 1.2, 1.13, 3.6, 4.01, 3.25, 3.61, 2.82, 2.0, 1.55, 2.46, 3.53, 4.54, 5.1, 5.21, 5.1, 6.01, 7.56, 8.42, 9.05, 10.16, 9.6, 10.85, 10.95, 11.18, 11.18, 11.36, 10.93, 11.06, 11.06, 10.7, 10.7, 10.28, 10.28, 9.7, 9.24, 9.03, 9.42, 9.9, 10.25, 11.06, 10.73, 10.73, 9.36, 8.91, 8.05, 7.15, 6.26, 4.47, 1.98, -0.0, -4.66, -4.92, -4.02, -3.58, -3.58, -3.13, -3.58, -2.68, -2.0, -1.2, -0.0, -0.0, 0.96, 1.84, 0.96, 0.88, 0.88, 8.65, 9.01, 9.01, 9.01, 8.94, 9.3, 9.37, 9.37, 9.08, 8.5, 6.35, 5.08, 5.72, 6.07, 7.89, 8.59, 9.36, 9.67, 9.5, 8.54, 8.24, 8.24, 10.36, 11.17, 11.72, 9.86, 5.03, 1.32, 0.0, 0.0, 1.18, 1.16, 1.16, 2.33, 2.39, 2.58, 1.25, 1.79, -0.0, -0.0, 1.4, 2.4, 3.36, 4.2, 4.5, 5.1, 6.01, 6.79, 7.44, 8.43, 8.43, 9.03, 9.6, 10.0, 10.85, 10.85, 10.85, 11.11, 11.11, 10.68, 10.45, 10.14, 9.83, 7.85, 7.82, 8.06, 9.05, 9.45, 10.1, 11.51, 12.07, 11.42, 10.8, 9.89, 9.11, 7.76, 7.42, 6.65, 4.92, 3.07, 2.29, -0.0, -5.81, -5.31, -4.85, -4.85, -4.15, -3.95, -3.58, -2.54, -1.74, -1.66, -0.88, -0.0, 0.96, 0.96, 0.96, 1.84, 8.38, 9.01, 9.21, 9.21, 8.94, 8.94, 9.02, 9.37, 9.08, 8.5, 6.69, 6.34, 7.61, 7.95, 9.24, 8.56, 8.72, 6.71, 6.7, 6.08, 8.05, 7.74, 8.72, 9.24, 10.43, 10.23, 7.27, 3.6, 1.32, 1.26, 1.16, 1.76, 1.75, 2.16, 3.35, 4.66, 3.58, 1.7, 2.76, 4.11, 3.58, 2.98, 2.67, 3.45, 4.66, 5.1, 6.01, 6.79, 7.42, 7.76, 8.3, 8.82, 9.24, 9.36, 9.9, 10.43, 10.85, 10.55, 10.55, 10.0, 9.66, 8.01, 6.7, 6.01, 6.53, 7.68, 8.38, 9.65, 11.11, 12.04, 12.27, 10.94, 10.0, 8.88, 7.85, 7.2, 6.94, 6.45, 4.98, 3.33, 3.79, 4.74, 3.58, -5.59, -4.8, -4.46, -4.22, -4.15, -3.58, -3.47, -2.84, -1.83, -1.05, -0.0, 0.96, 0.89, 1.72, 1.72, 8.38, 8.73, 8.94, 9.21, 8.94, 8.94, 9.02, 9.37, 9.08, 8.5, 7.3, 6.98, 7.95, 9.17, 10.01, 9.59, 8.58, 7.81, 7.27, 6.69, 6.97, 7.23, 6.64, 10.12, 9.17, 10.23, 9.66, 3.43, 3.16, 3.16, 2.8, 1.84, 2.48, 2.4, 1.8, 2.0, 2.53, 3.63, 4.54, 5.2, 5.2, 4.82, 3.58, 2.4, 4.0, 4.26, 6.01, 6.28, 7.2, 8.06, 7.63, 8.77, 8.77, 8.8, 9.06, 8.8, 8.8, 9.06, 8.4, 6.82, 4.92, 3.63, 3.45, 4.83, 5.06, 6.7, 7.9, 9.0, 9.65, 8.95, 7.11, 6.06, 5.94, 5.89, 6.01, 6.11, 6.21, 5.36, 4.01, 4.46, 5.24, 5.37, 6.18, -0.0, -2.24, -2.0, -1.79, -1.26, -0.99, -1.98, -1.8, -1.66, -1.55, -0.0, 0.89, 0.95, 1.84, 2.64, 8.38, 8.73, 8.94, 9.21, 9.21, 9.21, 9.3, 9.37, 9.37, 8.5, 7.9, 7.32, 7.95, 9.48, 11.23, 11.9, 12.28, 11.2, 9.77, 8.72, 8.55, 8.96, 9.71, 9.27, 8.96, 9.43, 10.04, 8.43, 5.36, 2.68, 4.02, 4.02, 3.35, 2.0, 1.66, 0.88, 2.53, 3.35, 4.54, 5.2, 5.51, 5.29, 4.92, 3.79, 3.68, 3.91, 5.37, 6.4, 7.01, 7.5, 7.11, 7.89, 8.36, 7.15, 7.01, 6.0, 6.4, 7.01, 3.16, -1.58, -0.89, 1.67, 3.21, 3.21, 4.07, 5.14, 6.71, 7.24, 6.31, 4.2, 1.13, 0.0, 0.89, 2.67, 4.42, 4.58, 4.57, 4.54, 4.46, 5.21, 6.06, 6.82, 6.07, 5.82, 3.63, 1.83, 1.99, 2.29, 2.35, 2.47, 0.76, -0.0, -0.72, -0.0, -0.0, 0.83, 1.73, 2.82, 8.38, 8.38, 8.73, 8.94, 9.21, 9.21, 8.94, 9.02, 9.37, 8.5, 8.22, 7.93, 8.53, 9.48, 10.99, 12.45, 13.36, 13.71, 12.62, 11.41, 10.71, 10.91, 11.56, 12.21, 13.21, 13.75, 14.2, 14.26, 11.61, 7.58, 3.99, 4.92, 5.09, 2.84, 2.0, 0.96, 2.53, 3.63, 5.2, 5.51, 5.75, 5.81, 5.81, 6.07, 4.43, 4.43, 3.39, 4.66, 5.64, 6.07, 7.15, 8.05, 7.15, 5.09, 2.8, 2.6, 5.72, 7.01, 4.47, -0.98, -0.0, 1.28, 2.49, 3.45, 3.32, 4.2, 4.83, 4.71, 5.69, 5.21, 3.22, 0.0, 0.0, 1.73, 2.64, 3.35, 3.91, 4.96, 5.76, 6.73, 6.79, 7.42, 7.03, 6.4, 3.9, 2.82, 1.73, 2.51, 3.09, 3.09, 2.9, 1.55, -0.0, -0.83, -0.0, 0.83, 1.84, 2.64, 8.38, 8.38, 8.73, 8.94, 8.94, 9.21, 9.21, 8.94, 9.02, 8.78, 8.5, 8.53, 8.85, 9.77, 10.4, 12.16, 13.58, 14.29, 14.51, 13.82, 12.62, 12.6, 12.78, 13.41, 14.34, 15.36, 15.82, 15.48, 15.1, 11.95, 6.04, 3.09, 5.81, 5.64, 2.98, 1.41, 3.0, 4.43, 6.23, 5.81, 6.26, 7.15, 6.58, 6.58, 6.07, 4.92, 1.7, 1.52, 3.22, 4.46, 6.07, 6.71, 5.6, 3.76, 2.8, 4.11, 6.07, 6.71, 7.15, 5.37, 2.44, 2.58, 4.0, 3.8, 4.37, 5.31, 4.71, 5.59, 6.32, 7.81, 5.75, 1.08, -0.83, 0.0, 2.68, 3.55, 5.9, 6.42, 7.35, 7.41, 7.82, 8.3, 7.71, 6.79, 4.11, 2.64, 1.73, 2.51, 2.26, 2.67, 3.6, 3.09, 0.74, -0.0, -0.89, 0.89, 1.72, 1.72, 8.38, 8.38, 8.73, 8.94, 8.94, 9.3, 8.94, 8.94, 8.94, 8.78, 8.5, 8.53, 9.13, 9.77, 10.69, 11.58, 13.01, 14.13, 14.82, 14.67, 13.99, 13.62, 13.81, 13.99, 14.95, 15.58, 16.15, 15.92, 15.55, 14.26, 11.12, 7.52, 6.23, 7.6, 6.07, 3.07, 4.29, 5.15, 6.58, 6.71, 6.2, 6.64, 7.15, 6.71, 6.58, 4.43, 1.32, 1.23, 3.22, 4.84, 6.0, 6.23, 6.13, 5.06, 5.36, 6.23, 7.15, 8.05, 8.85, 8.15, 5.89, 6.01, 5.31, 5.69, 5.72, 5.72, 4.74, 6.52, 7.28, 7.6, 5.73, 0.98, -0.96, -0.0, 3.45, 6.2, 8.12, 8.65, 8.79, 8.43, 8.4, 8.56, 8.33, 6.16, 3.63, 1.84, 1.73, 2.67, 2.4, 2.54, 3.27, 2.26, -0.0, -0.82, -0.0, 0.76, 1.47, 1.47, 8.15, 8.38, 8.73, 8.73, 8.94, 8.94, 9.3, 8.94, 8.94, 8.73, 8.78, 9.42, 9.46, 9.77, 10.69, 11.52, 12.45, 13.58, 14.4, 14.82, 14.67, 13.99, 14.44, 14.3, 15.11, 15.38, 15.93, 16.0, 16.05, 16.08, 15.19, 12.92, 10.04, 10.47, 6.71, 5.75, 5.21, 5.6, 5.64, 6.26, 6.58, 5.36, 6.71, 5.2, 6.13, 3.68, 2.66, 2.8, 4.43, 5.36, 6.64, 7.2, 7.2, 7.6, 7.6, 8.17, 8.85, 9.32, 9.11, 8.37, 7.81, 7.21, 7.07, 6.52, 6.64, 5.6, 6.0, 6.0, 7.06, 7.06, 6.51, 4.02, 3.16, 4.34, 6.84, 8.12, 9.62, 10.29, 9.67, 9.42, 8.95, 8.56, 7.63, 5.43, 3.91, 2.6, 1.84, 2.67, 2.54, 3.45, 3.91, 3.69, 1.45, -0.0, -0.0, -0.0, 0.88, 0.88, 8.15, 8.38, 8.38, 8.73, 8.94, 8.94, 9.3, 8.94, 8.94, 8.94, 9.02, 9.08, 9.72, 10.3, 10.36, 11.23, 12.37, 13.48, 14.03, 14.67, 14.51, 14.22, 14.03, 14.16, 14.58, 15.6, 16.5, 16.5, 16.5, 16.95, 16.9, 15.92, 13.1, 9.11, 5.81, 6.71, 5.81, 6.26, 5.81, 5.81, 5.36, 5.2, 4.46, 5.01, 5.06, 4.75, 3.91, 4.02, 5.36, 6.13, 6.52, 7.2, 7.6, 7.81, 8.6, 8.6, 8.6, 9.11, 9.04, 8.54, 8.54, 8.15, 8.22, 7.63, 7.5, 6.2, 6.26, 6.71, 6.71, 7.6, 8.85, 8.82, 9.3, 9.62, 10.01, 10.66, 11.26, 11.26, 11.2, 9.9, 9.24, 7.89, 6.8, 4.01, 3.47, 2.8, 2.64, 2.51, 2.54, 3.45, 4.34, 4.12, 2.9, 1.52, -0.0, -0.0, -0.0, -0.0, 8.15, 8.38, 8.38, 8.73, 8.94, 8.94, 8.94, 8.94, 8.94, 9.3, 9.3, 9.37, 10.01, 10.3, 10.36, 12.16, 11.44, 12.93, 13.36, 13.82, 14.53, 14.94, 13.62, 14.58, 14.21, 16.17, 12.31, 16.53, 16.96, 14.34, 15.58, 14.81, 10.94, 6.16, 3.98, 3.07, 2.97, 4.19, 6.94, 7.6, 6.21, 6.45, 6.23, 5.36, 5.06, 5.37, 5.93, 6.52, 6.13, 6.64, 7.06, 7.63, 7.63, 8.17, 8.17, 8.6, 8.6, 8.63, 8.54, 8.54, 9.04, 9.03, 8.6, 7.11, 7.1, 6.71, 6.71, 7.1, 7.55, 8.94, 10.66, 11.37, 12.7, 12.7, 12.56, 12.53, 12.27, 12.27, 11.84, 10.89, 8.14, 6.8, 5.49, 4.74, 3.72, 2.8, 2.64, 2.35, 2.54, 3.8, 4.34, 4.34, 4.26, 2.9, 1.84, -0.0, -0.0, -0.0, 8.15, 8.38, 8.38, 8.73, 8.94, 8.94, 8.94, 8.94, 8.94, 9.3, 9.3, 9.59, 9.94, 10.23, 10.36, 10.36, 11.23, 11.23, 12.52, 12.89, 15.35, 13.99, 13.62, 14.11, 13.51, 14.46, 14.95, 12.11, 12.62, 13.12, 13.62, 9.75, 3.54, 1.79, 1.79, 2.17, 2.0, 3.6, 5.24, 6.26, 7.13, 7.43, 6.97, 5.4, 4.0, 6.52, 6.52, 7.21, 7.06, 6.64, 6.64, 7.21, 7.63, 7.63, 7.21, 7.76, 9.21, 7.6, 8.0, 9.21, 9.11, 8.85, 8.49, 8.05, 6.71, 6.71, 6.65, 7.1, 8.0, 8.94, 10.25, 12.27, 13.92, 14.55, 14.73, 13.86, 13.39, 12.49, 10.73, 9.36, 8.06, 6.8, 5.49, 5.06, 4.29, 3.11, 3.11, 3.0, 2.9, 2.99, 4.34, 4.34, 5.1, 4.26, 2.9, 0.89, 0.89, 0.89, 8.15, 8.38, 8.38, 8.73, 8.73, 8.94, 8.94, 8.94, 9.3, 9.3, 9.3, 9.59, 9.94, 10.23, 10.65, 10.94, 11.52, 10.88, 9.72, 11.87, 13.88, 12.82, 12.93, 12.45, 12.73, 13.21, 13.62, 12.95, 12.39, 12.62, 10.5, 4.19, 1.34, 0.89, 0.89, 0.89, 1.34, 2.63, 4.44, 6.26, 7.58, 8.42, 7.87, 6.51, 4.8, 6.64, 7.06, 7.21, 7.5, 7.06, 7.01, 7.06, 7.21, 6.52, 7.2, 6.44, 7.42, 7.28, 9.21, 8.85, 8.94, 8.49, 8.49, 8.05, 7.1, 7.15, 7.1, 7.6, 8.05, 8.94, 10.14, 11.61, 13.65, 14.28, 14.22, 13.29, 11.47, 11.37, 10.45, 8.94, 7.12, 5.82, 5.49, 4.74, 4.29, 3.72, 3.72, 3.0, 2.9, 2.82, 3.45, 4.96, 5.89, 4.56, 3.2, 1.45, 1.52, 1.52, 8.15, 8.38, 8.38, 8.38, 8.73, 8.94, 8.94, 8.94, 9.3, 9.3, 9.5, 9.59, 10.15, 10.51, 10.59, 10.88, 11.8, 11.23, 10.36, 10.94, 12.0, 12.7, 11.72, 10.94, 12.16, 14.13, 15.21, 14.91, 14.03, 12.91, 9.8, 4.34, 1.79, 1.34, 0.89, 1.2, 1.27, 2.24, 3.58, 4.92, 6.26, 7.13, 7.51, 6.61, 4.66, 3.88, 7.21, 7.5, 7.6, 7.06, 6.58, 6.23, 6.13, 6.52, 6.52, 6.9, 6.82, 7.82, 8.63, 8.41, 7.6, 8.05, 8.01, 7.85, 7.42, 7.42, 7.55, 7.6, 7.42, 8.63, 8.54, 10.94, 12.04, 11.06, 5.58, 6.06, 7.31, 7.95, 7.6, 6.21, 5.58, 4.74, 4.58, 4.58, 4.16, 4.16, 3.55, 3.55, 2.9, 3.09, 3.8, 5.13, 5.64, 4.56, 3.0, 2.12, 1.73, 1.73, 8.15, 8.15, 8.15, 8.38, 8.73, 8.94, 8.94, 8.94, 8.94, 9.3, 9.86, 9.86, 10.15, 10.51, 10.87, 10.8, 11.72, 11.44, 11.8, 12.09, 12.93, 13.62, 12.56, 11.5, 11.16, 12.37, 14.29, 15.42, 15.44, 14.72, 12.78, 8.64, 5.24, 3.54, 3.13, 2.24, 2.17, 2.63, 3.58, 4.47, 5.36, 6.23, 7.13, 6.68, 4.8, 4.11, 7.5, 8.05, 7.15, 6.58, 6.0, 5.36, 5.06, 5.72, 6.13, 6.52, 6.21, 6.82, 8.22, 7.42, 7.6, 8.01, 8.14, 7.63, 7.63, 7.21, 6.71, 6.02, 6.11, 6.01, 7.44, 7.81, 8.72, 5.36, 3.16, 2.4, 2.53, 3.22, 3.47, 2.53, 2.53, 3.47, 3.72, 3.55, 3.55, 4.16, 3.55, 3.55, 4.03, 4.26, 3.6, 5.13, 5.64, 4.56, 3.0, 2.26, 2.26, 2.26, 7.81, 7.81, 8.15, 8.38, 8.73, 8.94, 8.94, 8.94, 8.94, 9.3, 9.86, 10.23, 10.15, 10.51, 10.87, 11.07, 11.44, 11.35, 11.72, 12.0, 13.36, 14.15, 14.73, 13.31, 11.75, 11.5, 12.32, 13.99, 14.73, 15.44, 14.48, 12.3, 9.43, 7.4, 6.23, 4.92, 3.99, 3.98, 3.99, 4.88, 5.34, 6.23, 6.68, 6.24, 5.33, 4.44, 7.6, 8.05, 7.01, 5.36, 5.06, 5.06, 5.72, 6.13, 6.64, 6.64, 5.6, 6.16, 7.63, 7.63, 6.71, 7.1, 6.94, 6.94, 6.45, 5.36, 4.43, 4.96, 4.96, 6.01, 6.4, 10.73, 11.36, 10.85, 9.6, 7.06, 4.92, 3.58, -0.0, -0.0, -0.0, 0.81, 1.6, 2.47, 3.33, 3.72, 3.72, 4.16, 4.42, 5.1, 4.5, 5.21, 5.59, 4.65, 3.0, 2.26, 2.9, 2.9, 7.81, 7.81, 8.15, 8.38, 8.38, 8.73, 8.94, 8.94, 8.94, 9.3, 9.86, 10.23, 10.51, 10.51, 11.07, 11.07, 11.44, 11.62, 11.35, 11.72, 12.82, 13.76, 14.91, 14.91, 13.82, 12.79, 12.28, 12.79, 13.71, 14.53, 14.72, 13.51, 11.39, 9.43, 8.33, 7.13, 6.26, 5.36, 4.89, 5.33, 5.34, 6.23, 6.68, 6.68, 5.81, 5.36, 5.34, 5.81, 5.09, 4.0, 4.0, 5.75, 6.23, 6.23, 6.23, 6.23, 6.58, 5.73, 6.71, 7.01, 7.5, 6.65, 6.65, 6.26, 4.57, 2.8, 2.44, 4.2, 4.96, 6.7, 7.6, 9.39, 12.47, 12.09, 12.09, 10.68, 7.89, 3.35, -0.0, -0.98, -0.79, -0.0, 0.81, 1.7, 2.8, 3.47, 3.72, 4.58, 4.95, 5.21, 5.49, 5.21, 5.3, 4.42, 3.0, 3.0, 2.9, 2.9, 7.81, 7.81, 8.15, 8.38, 8.38, 9.01, 9.01, 9.21, 8.94, 9.3, 9.5, 9.86, 10.15, 10.51, 11.07, 11.07, 11.07, 11.62, 11.62, 11.62, 12.54, 13.23, 14.15, 14.67, 14.91, 13.99, 13.71, 13.31, 13.53, 13.53, 13.62, 12.83, 11.21, 9.7, 8.67, 7.98, 7.6, 6.71, 6.26, 5.79, 6.23, 6.23, 6.68, 7.13, 6.68, 6.26, 5.81, 5.81, 5.33, 4.34, 3.82, 3.39, 6.07, 5.6, 5.6, 6.58, 6.71, 6.71, 6.71, 6.58, 7.63, 8.17, 7.12, 6.16, 3.91, 2.44, 2.47, 4.0, 6.11, 6.4, 7.55, 9.39, 9.8, 11.36, 11.61, 11.11, 7.56, 2.0, -1.98, -2.23, -2.23, -0.87, -0.0, 0.73, 1.7, 2.8, 3.72, 4.29, 5.37, 5.3, 5.49, 5.21, 4.56, 4.65, 3.33, 3.33, 3.2, 3.2, 7.81, 7.81, 7.81, 8.38, 8.38, 8.65, 9.01, 9.21, 8.94, 9.3, 9.5, 9.86, 10.15, 10.51, 11.07, 11.07, 11.07, 11.62, 11.62, 11.62, 12.16, 12.7, 13.62, 14.39, 14.67, 14.67, 14.51, 13.99, 13.82, 13.53, 13.32, 12.83, 10.62, 8.1, 7.09, 7.07, 7.58, 8.05, 8.05, 7.6, 7.15, 7.15, 7.13, 7.13, 7.58, 7.13, 6.71, 6.26, 5.36, 4.02, 3.13, 2.68, 2.24, 2.6, 4.38, 5.29, 7.15, 6.71, 5.73, 5.94, 7.5, 7.85, 8.85, 6.16, 3.6, 2.44, 3.32, 5.69, 6.18, 7.12, 7.55, 8.49, 9.39, 10.25, 10.89, 10.68, 7.1, 0.0, -4.02, -3.6, -3.6, -2.6, -1.74, -0.0, -0.0, 1.7, 3.47, 4.29, 5.06, 5.24, 5.59, 5.64, 4.83, 4.16, 3.64, 3.11, 3.0, 3.0, 7.81, 7.81, 7.81, 8.15, 8.38, 8.65, 9.01, 9.21, 9.21, 9.3, 9.5, 9.86, 10.41, 10.51, 11.07, 11.07, 11.44, 11.62, 11.62, 11.62, 11.62, 12.54, 13.23, 13.99, 14.39, 14.39, 14.15, 14.15, 14.39, 14.22, 14.03, 13.32, 11.21, 9.01, 7.09, 6.94, 7.58, 8.03, 8.47, 8.05, 8.05, 7.6, 7.15, 7.58, 7.52, 7.52, 7.58, 6.71, 5.26, 3.87, 2.91, 2.17, 1.7, 1.34, 2.24, 4.47, 6.71, 6.26, 5.09, 5.51, 6.65, 8.05, 8.05, 6.21, 3.27, 3.3, 5.1, 6.18, 7.12, 7.55, 8.05, 8.94, 9.35, 9.39, 9.83, 10.25, 8.01, 1.9, -4.0, -4.92, -4.47, -3.13, -2.4, -1.8, -0.0, 0.88, 2.4, 3.91, 5.06, 5.37, 5.69, 6.01, 5.24, 4.65, 4.01, 3.47, 3.11, 3.11, 7.81, 7.81, 7.81, 8.15, 8.38, 8.65, 9.01, 9.21, 9.21, 9.21, 9.5, 9.86, 10.41, 10.51, 11.07, 11.07, 11.07, 11.62, 11.62, 11.62, 11.62, 12.16, 13.09, 13.62, 13.99, 13.48, 13.48, 13.87, 13.99, 13.59, 13.82, 13.12, 11.82, 9.51, 8.0, 7.4, 7.52, 7.98, 8.47, 8.47, 8.03, 7.6, 7.15, 8.49, 8.45, 6.94, 7.07, 5.36, 2.91, 3.07, 1.9, 1.86, 1.26, 1.2, 1.6, 2.24, 5.36, 5.64, 4.57, 5.09, 6.26, 7.6, 7.15, 5.06, 3.45, 4.12, 5.89, 6.82, 6.94, 7.6, 8.45, 8.9, 9.24, 9.24, 9.7, 10.25, 10.28, 8.49, 2.98, -2.84, -5.09, -4.02, -3.39, -2.21, -1.49, -0.0, 0.88, 2.76, 4.74, 6.18, 6.82, 6.44, 6.07, 5.09, 4.81, 3.22, 2.47, 2.47, 7.81, 7.81, 7.81, 7.81, 8.65, 8.65, 8.65, 9.01, 9.21, 9.21, 9.3, 9.86, 10.41, 10.79, 10.7, 11.07, 11.07, 11.62, 11.62, 11.62, 12.03, 12.16, 12.7, 13.23, 13.62, 13.48, 13.71, 13.48, 13.48, 13.08, 13.31, 12.62, 11.41, 9.92, 8.3, 7.74, 7.87, 8.42, 8.86, 8.87, 8.42, 8.03, 7.58, 6.23, 5.36, 8.45, 9.39, 2.68, 0.0, -0.63, 0.0, 0.0, 0.8, 0.95, 1.2, 1.79, 2.68, 2.91, 4.57, 4.82, 6.26, 7.11, 6.45, 4.16, 4.42, 4.16, 4.95, 6.01, 6.16, 6.26, 6.94, 8.01, 8.94, 9.39, 9.8, 10.6, 11.15, 11.18, 10.73, 8.01, 3.13, -2.0, -4.11, -3.35, -1.88, -0.87, -0.0, 2.41, 4.84, 6.4, 7.21, 7.12, 6.28, 6.21, 4.84, 3.22, 2.29, 2.29, 7.55, 7.55, 7.81, 8.08, 8.44, 8.65, 8.65, 9.01, 9.21, 9.21, 9.3, 9.5, 10.41, 10.41, 10.96, 11.07, 11.07, 11.24, 11.88, 11.88, 12.03, 12.42, 12.54, 13.09, 13.23, 13.48, 13.71, 13.31, 13.31, 12.79, 13.02, 12.62, 11.41, 9.8, 8.79, 8.0, 7.74, 8.33, 8.77, 8.79, 8.86, 8.42, 7.97, 6.61, 5.7, 8.06, 9.24, 3.13, 0.0, -0.45, 0.45, 0.0, 1.2, 1.2, 1.2, 1.79, 2.24, 2.6, 2.63, 4.47, 5.81, 6.71, 6.21, 4.74, 5.15, 5.21, 4.54, 5.36, 5.72, 6.58, 5.81, 6.45, 7.76, 9.75, 11.06, 11.18, 11.05, 10.7, 11.18, 11.14, 9.89, 7.92, 1.84, -1.9, -2.15, -1.24, -0.0, 1.74, 4.4, 6.55, 7.56, 7.11, 6.21, 5.75, 4.46, 2.98, 1.6, 1.6, 7.55, 7.55, 8.08, 8.08, 8.44, 8.65, 8.65, 9.01, 9.21, 9.21, 9.3, 9.3, 9.86, 10.41, 10.79, 10.96, 11.34, 11.5, 11.88, 11.88, 11.88, 12.03, 12.42, 12.7, 13.09, 13.48, 13.08, 12.79, 14.39, 11.6, 12.11, 12.11, 11.41, 10.21, 9.01, 8.3, 8.06, 8.21, 8.64, 8.67, 8.77, 8.77, 8.33, 7.87, 6.79, 6.9, 7.74, 6.68, 4.02, 2.24, 1.34, 1.79, 2.17, 2.6, 2.6, 2.24, 2.24, 2.68, 2.68, 3.13, 5.36, 6.2, 5.82, 5.43, 5.75, 5.59, 5.36, 5.81, 6.14, 7.5, 6.16, 6.18, 7.44, 10.6, 12.74, 13.41, 11.15, 9.83, 9.36, 9.83, 10.0, 10.65, 9.45, 3.2, -0.63, -1.2, 0.45, 1.34, 4.82, 6.66, 7.15, 6.71, 6.26, 5.36, 4.22, 2.2, 1.6, 1.6, 7.23, 7.23, 8.08, 8.08, 8.08, 8.65, 8.65, 8.65, 9.21, 9.21, 9.3, 9.3, 9.86, 9.86, 10.79, 10.96, 11.34, 11.34, 11.5, 11.5, 11.88, 12.03, 12.42, 12.42, 12.95, 12.95, 12.95, 12.56, 12.03, 13.83, 11.08, 10.55, 9.63, 9.35, 8.68, 8.72, 8.48, 8.48, 8.96, 9.11, 8.67, 8.64, 8.64, 8.21, 7.74, 7.58, 8.21, 8.42, 7.6, 6.26, 4.47, 3.58, 3.53, 3.54, 3.53, 3.13, 3.58, 2.68, 2.68, 2.68, 3.58, 5.59, 6.64, 5.51, 5.75, 5.81, 5.81, 5.81, 7.15, 7.6, 7.63, 7.35, 7.85, 9.83, 13.86, 15.2, 12.96, 10.6, 9.89, 11.03, 11.3, 11.52, 11.71, 9.26, 1.79, -1.2, -0.63, 1.2, 4.92, 6.71, 7.15, 6.71, 6.21, 4.92, 2.41, 1.7, 1.6, 1.6, 7.51, 7.51, 7.85, 8.08, 8.08, 8.44, 8.65, 8.65, 9.01, 9.21, 8.94, 9.3, 9.86, 9.86, 10.41, 10.96, 10.96, 11.34, 11.34, 11.5, 11.88, 12.03, 12.42, 12.42, 12.95, 12.95, 12.56, 12.56, 12.7, 12.42, 11.36, 10.16, 8.43, 7.23, 7.08, 7.31, 7.81, 8.72, 9.21, 9.39, 8.96, 8.96, 8.64, 8.64, 8.64, 8.21, 8.21, 8.33, 7.97, 7.13, 6.26, 5.33, 4.89, 4.8, 4.44, 4.02, 4.02, 3.58, 3.13, 2.68, 5.81, 5.64, 6.07, 6.07, 5.29, 5.81, 5.81, 5.81, 6.71, 7.6, 7.21, 8.17, 8.85, 10.25, 13.39, 15.2, 14.22, 13.01, 12.01, 12.66, 13.34, 12.94, 12.05, 10.73, 5.36, 0.0, -0.54, 1.24, 4.92, 6.71, 7.11, 7.15, 6.21, 4.47, 1.66, 0.76, 0.76, 0.76, 7.51, 7.51, 7.85, 8.08, 8.08, 8.44, 8.65, 8.65, 9.01, 8.94, 8.94, 9.3, 9.5, 9.86, 9.86, 10.79, 10.96, 10.96, 11.34, 11.5, 11.88, 12.03, 12.42, 12.42, 12.42, 12.42, 12.56, 12.56, 12.32, 12.56, 12.28, 10.91, 8.28, 6.8, 6.0, 6.1, 7.01, 7.81, 8.79, 9.27, 9.21, 8.79, 8.96, 9.11, 8.67, 8.64, 8.64, 8.64, 8.33, 7.51, 6.61, 6.16, 5.7, 5.7, 5.33, 4.89, 4.47, 4.02, 3.58, 3.13, 3.13, 5.64, 5.64, 6.07, 6.07, 6.26, 5.73, 6.2, 6.65, 7.1, 6.98, 8.41, 9.76, 11.18, 12.49, 13.86, 14.11, 14.4, 14.4, 14.22, 13.41, 12.96, 12.05, 10.26, 5.75, 0.0, 0.0, 3.13, 4.92, 6.65, 7.55, 7.6, 6.71, 4.15, 0.81, 0.76, 0.76, 0.76, 7.51, 7.51, 7.51, 8.08, 8.08, 8.08, 8.65, 8.65, 9.01, 8.94, 8.94, 9.3, 9.5, 9.86, 9.86, 10.41, 10.96, 10.96, 11.34, 11.34, 11.5, 11.88, 12.03, 12.42, 12.16, 12.42, 12.42, 12.03, 12.42, 12.42, 12.28, 11.08, 9.3, 7.81, 6.6, 5.88, 6.3, 7.01, 8.22, 9.01, 9.42, 9.01, 8.79, 8.96, 8.67, 8.67, 8.67, 8.64, 8.64, 7.74, 7.4, 6.51, 6.47, 6.04, 5.7, 5.24, 4.44, 3.98, 3.58, 3.13, 2.68, 3.13, 5.81, 5.36, 5.75, 6.58, 6.02, 6.51, 7.1, 7.1, 7.6, 7.11, 10.22, 11.6, 12.52, 12.52, 12.94, 13.76, 14.66, 14.29, 13.41, 12.05, 10.63, 8.67, 4.85, 2.4, 2.97, 4.0, 5.51, 6.65, 7.55, 7.6, 6.2, 4.29, 1.55, 0.81, 0.88, 0.88, 7.51, 7.51, 7.51, 7.85, 8.08, 8.08, 8.65, 8.65, 9.01, 8.94, 8.94, 9.3, 9.3, 9.86, 9.86, 10.41, 10.79, 10.96, 10.96, 11.34, 11.5, 11.88, 12.03, 12.42, 12.42, 12.42, 12.42, 12.28, 12.28, 12.03, 11.75, 11.08, 9.88, 8.51, 7.81, 7.09, 6.79, 6.6, 7.31, 8.0, 8.91, 9.01, 8.72, 10.68, 7.74, 8.21, 8.64, 8.48, 8.48, 8.0, 7.51, 6.6, 6.72, 6.3, 5.57, 5.09, 4.34, 3.98, 3.58, 3.13, 2.68, 3.13, 5.81, 5.36, 5.81, 6.71, 5.75, 6.71, 6.71, 6.71, 7.15, 7.15, 9.32, 12.31, 12.86, 12.07, 11.62, 12.49, 13.83, 13.84, 12.94, 11.6, 9.58, 6.28, 2.97, 1.8, 2.41, 3.58, 5.59, 6.71, 7.6, 7.15, 5.51, 3.79, 1.99, 1.66, 1.6, 1.66, 7.51, 7.51, 7.51, 7.85, 8.08, 8.08, 8.44, 8.65, 8.65, 8.73, 8.94, 9.3, 9.3, 9.5, 9.86, 9.86, 10.41, 10.96, 10.96, 11.34, 11.5, 11.5, 11.88, 12.03, 12.42, 12.42, 12.42, 12.28, 11.88, 11.75, 11.36, 10.55, 9.48, 8.68, 8.51, 8.22, 8.0, 7.58, 7.51, 7.81, 8.0, 8.51, 8.0, 9.9, 7.74, 8.33, 8.48, 8.72, 8.1, 7.71, 7.2, 6.8, 6.51, 6.0, 5.4, 5.02, 4.19, 3.87, 3.53, 3.13, 3.13, 3.07, 5.81, 5.36, 5.81, 6.71, 6.71, 6.26, 6.71, 6.71, 6.71, 7.15, 8.41, 10.93, 13.96, 13.21, 11.62, 11.96, 12.66, 13.23, 12.43, 11.09, 9.28, 6.26, 4.11, 2.53, 2.41, 3.6, 5.29, 6.71, 7.15, 6.21, 4.6, 3.48, 2.95, 2.41, 2.53, 1.6, 7.51, 7.51, 7.51, 7.51, 8.08, 8.08, 8.44, 8.65, 8.38, 8.73, 8.94, 8.94, 9.3, 9.5, 9.86, 9.86, 10.41, 10.41, 10.96, 10.96, 11.34, 11.5, 11.88, 11.88, 12.03, 12.03, 12.03, 12.28, 11.75, 11.36, 10.83, 10.16, 9.35, 8.68, 8.51, 8.51, 8.72, 8.72, 8.3, 7.81, 7.81, 8.0, 7.23, 7.08, 9.9, 8.48, 8.79, 8.28, 7.76, 7.23, 6.56, 6.41, 6.28, 6.0, 5.08, 4.8, 4.11, 3.39, 3.53, 3.13, 3.13, 3.07, 3.53, 6.14, 6.26, 6.71, 5.75, 6.2, 6.71, 6.71, 6.71, 6.71, 8.05, 9.32, 12.42, 12.7, 12.37, 11.18, 10.16, 9.28, 8.94, 8.49, 8.36, 8.24, 7.95, 6.7, 4.84, 4.57, 5.29, 6.2, 6.65, 6.02, 4.6, 3.48, 3.48, 3.93, 3.22, 2.53, 7.51, 7.51, 7.51, 7.51, 8.08, 8.08, 8.08, 8.65, 8.38, 8.73, 8.73, 8.94, 9.3, 9.5, 9.86, 9.86, 10.41, 10.41, 10.96, 10.96, 10.96, 11.5, 11.5, 11.88, 12.03, 12.03, 12.28, 12.28, 11.75, 11.6, 10.68, 10.0, 9.48, 8.8, 8.28, 8.28, 9.01, 9.01, 9.01, 8.6, 8.1, 8.0, 7.23, 6.79, 7.35, 10.28, 8.28, 7.23, 5.59, 5.24, 5.49, 5.49, 5.75, 5.37, 5.08, 4.8, 3.88, 3.39, 3.53, 3.53, 3.07, 3.07, 5.64, 6.07, 6.14, 6.71, 6.2, 7.15, 6.26, 6.71, 7.15, 7.15, 8.05, 8.05, 9.29, 11.62, 12.7, 12.04, 9.54, 7.85, 7.47, 7.85, 8.88, 9.52, 10.09, 9.45, 8.0, 5.75, 4.6, 5.75, 6.7, 6.16, 4.6, 3.79, 4.29, 4.6, 3.93, 3.93, 7.51, 7.51, 7.51, 7.51, 7.85, 8.08, 8.08, 8.65, 8.65, 8.38, 8.73, 8.94, 9.3, 9.3, 9.86, 9.86, 9.86, 10.41, 10.41, 10.96, 10.96, 11.34, 11.5, 11.5, 11.88, 12.14, 11.75, 11.75, 11.75, 11.08, 10.4, 9.48, 9.2, 9.2, 8.68, 8.68, 8.68, 9.2, 9.71, 9.3, 9.01, 8.51, 7.76, 7.35, 8.0, 8.55, 8.8, 7.31, 4.69, 4.0, 3.73, 4.07, 4.29, 4.55, 4.55, 4.0, 3.6, 3.39, 3.53, 3.53, 3.53, 3.39, 3.87, 6.58, 6.26, 6.26, 6.71, 6.71, 6.26, 6.71, 7.15, 7.1, 7.94, 7.37, 8.41, 9.83, 11.36, 13.49, 12.29, 10.63, 9.84, 10.09, 10.94, 10.94, 10.53, 10.85, 9.83, 7.63, 5.2, 5.51, 6.51, 6.02, 4.6, 4.29, 4.98, 4.6, 4.6, 4.6, 7.25, 7.25, 7.51, 7.51, 7.85, 8.08, 8.08, 8.44, 8.65, 8.65, 8.73, 8.94, 9.3, 9.3, 9.5, 9.86, 9.86, 10.41, 10.41, 10.96, 10.96, 10.96, 11.5, 11.5, 11.5, 11.75, 11.75, 11.75, 11.6, 11.08, 10.0, 9.71, 9.2, 8.8, 8.68, 8.28, 8.68, 8.68, 9.2, 9.48, 9.71, 9.2, 8.68, 8.05, 8.43, 9.1, 9.71, 8.72, 6.79, 4.9, 3.35, 3.35, 3.14, 3.43, 3.43, 3.43, 3.2, 3.39, 3.53, 3.53, 3.53, 3.39, 3.87, 6.58, 6.26, 6.26, 6.71, 6.71, 5.75, 6.71, 7.15, 7.55, 7.42, 8.06, 8.14, 8.8, 10.73, 13.18, 13.91, 12.79, 12.23, 11.6, 11.72, 11.52, 11.09, 11.23, 10.93, 8.8, 6.2, 5.73, 5.75, 5.29, 4.57, 4.98, 4.6, 4.6, 4.6, 4.6, 7.25, 7.25, 7.51, 7.51, 7.51, 8.08, 8.08, 8.08, 8.65, 8.65, 8.73, 8.94, 8.94, 9.3, 9.5, 9.86, 9.86, 10.23, 10.41, 10.41, 10.96, 10.96, 11.34, 11.5, 11.5, 11.75, 11.75, 11.75, 11.6, 10.68, 9.88, 9.2, 8.91, 8.91, 8.51, 8.51, 8.28, 8.68, 9.2, 8.96, 9.48, 9.48, 8.96, 8.96, 8.82, 9.1, 9.88, 9.51, 8.91, 7.09, 5.81, 4.4, 3.49, 3.35, 2.84, 3.14, 3.07, 3.32, 3.39, 3.53, 3.53, 3.53, 3.87, 4.44, 6.71, 6.14, 6.14, 5.73, 6.2, 6.26, 7.6, 6.94, 7.63, 7.76, 8.56, 9.24, 10.28, 11.6, 13.01, 12.98, 12.79, 13.07, 13.15, 12.01, 11.42, 11.08, 10.7, 9.39, 6.71, 5.36, 6.26, 3.9, 4.34, 4.57, 4.57, 3.93, 3.93, 3.93, 7.25, 7.25, 7.51, 7.51, 7.51, 7.85, 8.08, 8.08, 8.44, 8.65, 8.38, 8.73, 8.94, 9.3, 9.3, 9.86, 9.86, 9.86, 10.41, 10.41, 10.79, 10.96, 10.96, 11.34, 11.5, 11.75, 11.75, 11.75, 11.6, 10.68, 9.88, 9.2, 8.91, 8.51, 8.0, 8.0, 8.51, 8.68, 8.68, 9.2, 8.96, 9.35, 9.35, 9.35, 9.35, 9.1, 9.63, 9.71, 9.01, 8.3, 7.51, 6.6, 5.6, 4.8, 4.0, 3.72, 3.35, 3.2, 3.39, 3.53, 3.53, 3.98, 3.87, 3.98, 4.02, 6.71, 6.26, 5.36, 5.75, 6.71, 6.94, 7.12, 7.12, 7.63, 8.14, 8.8, 9.83, 11.18, 11.96, 12.09, 12.56, 14.17, 14.64, 12.66, 11.42, 11.15, 10.73, 8.91, 6.2, 5.81, 5.36, 4.02, 4.34, 4.0, 4.0, 2.0, 2.0, 2.0, 6.92, 6.92, 7.51, 7.51, 7.51, 7.85, 8.08, 8.08, 8.08, 8.65, 8.38, 8.73, 8.94, 9.3, 9.3, 9.5, 9.86, 9.86, 9.86, 10.41, 10.41, 10.96, 10.96, 10.96, 11.5, 11.75, 11.75, 11.75, 11.36, 11.08, 9.88, 9.2, 8.68, 8.51, 8.0, 8.0, 8.0, 8.51, 8.68, 8.8, 9.2, 8.96, 9.35, 9.35, 9.35, 9.1, 9.63, 9.35, 8.8, 8.51, 8.3, 7.81, 7.31, 6.51, 5.08, 4.55, 4.27, 4.11, 3.87, 3.82, 3.98, 3.98, 3.53, 3.53, 3.58, 6.26, 6.71, 6.58, 6.64, 6.16, 7.12, 7.12, 7.21, 7.63, 8.33, 8.9, 9.39, 10.73, 11.06, 10.93, 12.09, 13.72, 14.64, 13.09, 11.86, 11.15, 10.26, 7.45, 5.26, 4.92, 4.92, 4.34, 4.0, 4.0, 3.16, 2.0, 2.0, 2.0, 6.92, 6.92, 7.25, 7.51, 7.51, 7.51, 8.08, 8.08, 8.08, 8.65, 8.38, 8.73, 8.94, 9.3, 9.3, 9.3, 9.86, 9.86, 9.86, 10.41, 10.41, 10.79, 10.96, 10.96, 10.96, 11.61, 11.36, 11.36, 11.36, 11.08, 10.27, 9.6, 8.8, 8.51, 8.0, 7.81, 8.22, 8.1, 8.51, 9.01, 8.8, 9.2, 9.35, 9.35, 9.35, 9.35, 9.35, 8.96, 8.8, 8.28, 8.51, 8.1, 7.81, 7.31, 6.28, 5.75, 5.47, 4.9, 4.6, 4.3, 3.87, 3.87, 3.39, 3.07, 2.68, 5.81, 6.14, 6.58, 6.64, 6.51, 7.42, 7.12, 7.85, 8.33, 8.33, 8.9, 9.39, 9.83, 10.25, 10.45, 11.36, 13.01, 14.15, 12.92, 11.71, 10.26, 7.45, 4.22, 3.9, 4.47, 4.92, 4.34, 4.0, 3.58, 2.68, 0.88, 0.88, 0.88, 6.92, 6.92, 6.92, 7.51, 7.51, 7.51, 7.85, 8.08, 8.08, 8.15, 8.38, 8.73, 8.73, 9.3, 9.3, 9.3, 9.5, 9.86, 9.86, 9.86, 10.41, 10.41, 10.96, 10.96, 10.96, 11.22, 11.22, 11.36, 11.22, 10.68, 10.27, 9.35, 9.2, 8.68, 8.4, 8.0, 8.0, 8.0, 8.51, 8.91, 9.01, 8.8, 9.2, 9.35, 9.48, 9.35, 9.35, 8.96, 8.8, 8.68, 8.51, 8.51, 8.0, 7.81, 6.8, 6.28, 6.1, 5.81, 4.9, 4.6, 3.87, 3.87, 3.39, 2.91, 2.49, 4.15, 5.29, 5.75, 6.2, 6.94, 7.42, 7.63, 7.85, 8.33, 8.33, 8.45, 8.94, 9.39, 9.8, 10.14, 10.6, 11.36, 12.3, 12.56, 11.03, 7.92, 0.99, 2.4, 3.58, 4.02, 4.02, 4.0, 4.0, 3.58, 2.0, -0.0, -0.0, -0.0, 6.92, 6.92, 6.92, 7.51, 7.51, 7.51, 7.85, 8.08, 8.08, 8.15, 8.38, 8.73, 8.73, 8.94, 9.3, 9.3, 9.3, 9.86, 9.86, 9.86, 10.41, 10.41, 10.79, 10.96, 10.96, 10.96, 11.22, 11.22, 11.22, 10.55, 10.02, 9.35, 9.2, 8.68, 8.4, 8.0, 8.0, 8.4, 8.51, 8.91, 9.01, 9.01, 9.2, 9.2, 9.35, 9.35, 9.35, 9.35, 9.2, 8.68, 8.68, 8.51, 8.51, 7.71, 7.31, 6.8, 6.51, 5.6, 5.31, 4.6, 4.11, 3.7, 3.6, 3.07, 3.07, 4.57, 4.57, 5.29, 5.51, 6.16, 7.12, 7.35, 7.76, 8.14, 8.33, 8.45, 8.45, 8.94, 8.94, 9.8, 10.14, 10.02, 10.68, 11.87, 11.61, 3.58, 0.0, 1.79, 2.68, 3.47, 3.47, 3.2, 3.22, 3.16, 1.08, -0.0, -0.0, -0.0, 6.92, 6.92, 6.92, 7.25, 7.51, 7.51, 7.51, 8.08, 8.08, 7.81, 8.38, 8.38, 8.73, 8.94, 9.3, 9.3, 9.3, 9.5, 9.86, 9.86, 9.86, 10.41, 10.41, 10.96, 10.96, 10.96, 11.22, 11.22, 10.83, 10.3, 10.02, 9.35, 8.96, 8.68, 8.15, 8.0, 8.0, 8.4, 8.51, 8.91, 9.01, 9.01, 9.01, 9.42, 9.2, 9.35, 9.35, 9.35, 8.96, 9.2, 8.68, 8.28, 8.28, 7.6, 7.31, 6.8, 6.28, 6.0, 5.31, 4.8, 3.88, 4.11, 3.6, 3.2, 3.14, 3.6, 4.98, 4.57, 5.51, 5.6, 6.21, 6.8, 7.2, 7.82, 8.14, 8.33, 8.45, 8.49, 8.49, 8.94, 9.8, 9.7, 10.16, 11.51, 9.72, 6.21, 2.68, -0.0, 1.58, 2.6, 2.98, 2.53, 2.23, 0.98, -0.0, -0.88, -0.88, -0.88, 6.92, 6.92, 6.92, 7.25, 7.51, 7.51, 7.51, 7.85, 8.08, 7.81, 8.15, 8.38, 8.73, 8.73, 9.3, 9.3, 9.3, 9.3, 9.86, 9.86, 9.86, 10.41, 10.41, 10.41, 10.96, 10.96, 10.96, 11.22, 10.83, 10.3, 10.02, 9.1, 8.96, 8.68, 8.15, 8.0, 8.0, 8.4, 8.51, 8.91, 9.01, 9.01, 9.42, 9.42, 9.42, 9.2, 9.2, 8.96, 8.96, 8.96, 8.43, 8.68, 8.28, 8.0, 7.48, 7.2, 6.28, 6.0, 5.08, 4.8, 4.4, 3.88, 3.88, 3.35, 3.35, 3.72, 5.2, 5.09, 5.09, 5.51, 6.16, 6.18, 6.44, 6.01, 7.82, 8.3, 8.14, 8.33, 8.45, 8.94, 9.39, 9.8, 10.25, 11.59, 9.83, 6.71, 2.68, -0.0, -0.0, 1.9, 1.74, 1.74, 1.13, -0.0, -0.96, -0.88, -0.88, -0.88, 6.92, 6.92, 6.92, 6.92, 7.51, 7.51, 7.51, 7.85, 8.08, 7.81, 8.15, 8.38, 8.73, 8.73, 8.94, 9.3, 9.3, 9.3, 9.5, 9.86, 9.86, 10.23, 10.41, 10.41, 10.41, 10.96, 10.96, 11.22, 10.83, 10.3, 10.02, 9.48, 8.96, 8.43, 8.15, 7.76, 8.0, 8.4, 8.51, 8.91, 9.01, 9.42, 9.42, 9.42, 9.42, 9.01, 8.8, 8.96, 8.96, 8.96, 8.82, 8.43, 8.15, 7.76, 7.23, 7.08, 6.8, 5.89, 5.6, 4.69, 4.4, 4.27, 3.88, 3.72, 3.72, 3.43, 4.4, 4.77, 5.73, 5.75, 6.7, 6.8, 6.8, 6.21, 5.82, 6.79, 7.42, 8.06, 8.33, 8.45, 8.94, 9.39, 11.15, 11.15, 8.94, 4.85, 0.89, -0.0, -0.0, -0.0, 0.99, -0.0, -0.0, -0.0, -0.96, -1.84, -1.84, -1.84, 6.92, 6.92, 6.92, 6.92, 7.25, 7.51, 7.51, 7.51, 7.85, 7.81, 8.15, 8.38, 8.73, 8.73, 8.73, 9.3, 9.3, 9.3, 9.3, 9.86, 9.86, 9.86, 10.41, 10.41, 10.41, 10.41, 10.79, 10.96, 10.68, 10.3, 9.76, 9.48, 8.96, 8.43, 8.15, 8.15, 7.76, 8.4, 8.28, 8.68, 8.8, 9.2, 9.42, 9.42, 9.42, 9.01, 9.01, 8.68, 8.82, 8.82, 8.82, 8.43, 7.9, 7.9, 7.61, 7.23, 6.95, 6.28, 5.75, 5.08, 4.55, 4.0, 4.27, 3.88, 3.72, 3.78, 4.0, 4.19, 5.73, 6.2, 6.94, 7.42, 7.42, 7.1, 7.1, 7.1, 6.8, 7.63, 8.33, 8.45, 8.45, 8.94, 10.25, 10.16, 7.15, 2.4, -2.68, -2.21, -1.2, -0.0, -0.0, -0.0, -0.0, -1.08, -1.99, -2.6, -2.6, -2.6, 6.92, 6.92, 6.92, 6.92, 7.25, 7.51, 7.51, 7.51, 7.85, 7.81, 8.15, 8.15, 8.38, 8.73, 8.73, 8.94, 9.3, 9.3, 9.3, 9.66, 9.86, 9.86, 10.23, 10.41, 10.41, 10.41, 10.41, 10.41, 10.41, 10.3, 9.76, 9.48, 8.55, 8.43, 8.27, 8.15, 7.76, 8.15, 8.28, 8.68, 8.8, 9.2, 9.2, 9.2, 9.2, 9.42, 9.01, 8.68, 8.82, 8.82, 8.55, 8.55, 7.9, 7.72, 7.35, 7.35, 6.7, 6.41, 5.75, 5.21, 4.55, 4.17, 4.0, 3.64, 3.43, 3.43, 3.43, 4.11, 4.3, 6.02, 6.64, 7.1, 7.55, 7.6, 7.6, 7.6, 7.55, 7.85, 8.33, 8.45, 8.45, 8.49, 9.24, 9.54, 8.0, 3.58, -1.9, -2.53, -1.98, -1.98, -0.87, -0.87, -1.66, -1.99, -2.47, -3.55, -3.55, -3.55, 6.92, 6.92, 6.92, 6.92, 7.25, 7.51, 7.51, 7.51, 7.55, 7.81, 7.81, 8.15, 8.38, 8.73, 8.73, 8.73, 9.3, 9.3, 9.3, 9.3, 9.86, 9.86, 10.23, 10.41, 10.41, 10.41, 10.41, 10.41, 10.41, 10.13, 9.76, 9.1, 8.55, 8.82, 8.27, 8.15, 8.15, 8.15, 8.15, 8.68, 8.68, 9.2, 9.2, 9.2, 9.2, 9.2, 8.8, 8.68, 8.43, 8.82, 8.55, 8.0, 8.0, 7.44, 7.44, 7.35, 6.79, 6.51, 5.86, 5.21, 4.65, 4.55, 4.0, 4.0, 3.43, 3.43, 3.72, 3.35, 3.6, 5.51, 5.51, 6.45, 6.51, 6.65, 7.1, 7.55, 7.42, 7.85, 8.33, 8.33, 8.05, 8.05, 8.9, 9.7, 9.7, 7.11, 2.21, -2.53, -3.22, -2.84, -2.41, -2.53, -3.22, -3.33, -3.4, -3.27, -3.27, -3.27, 6.92, 6.92, 6.92, 6.92, 7.25, 7.51, 7.51, 7.51, 7.55, 7.55, 7.81, 8.15, 8.38, 8.73, 8.73, 8.73, 8.73, 9.3, 9.3, 9.3, 9.66, 9.86, 9.86, 10.41, 10.41, 10.41, 10.41, 10.41, 10.41, 10.13, 9.58, 8.84, 8.55, 8.55, 8.27, 7.9, 8.15, 8.15, 8.15, 8.68, 8.68, 9.2, 9.2, 9.2, 9.6, 9.2, 9.2, 8.68, 8.43, 8.82, 8.55, 8.0, 8.0, 7.44, 7.44, 6.87, 6.87, 6.23, 5.93, 5.29, 4.65, 4.29, 4.37, 4.0, 3.43, 3.43, 3.35, 3.14, 3.6, 4.6, 5.51, 6.02, 6.2, 6.2, 6.51, 6.94, 7.12, 7.12, 7.35, 7.85, 8.05, 8.05, 8.9, 9.8, 10.25, 9.35, 5.26, -1.2, -4.15, -4.15, -4.19, -4.43, -4.65, -4.26, -4.12, -4.12, -4.12, -4.12, 6.34, 6.34, 6.92, 6.92, 7.25, 7.25, 7.23, 7.23, 7.23, 7.55, 7.81, 8.15, 8.15, 8.73, 8.73, 8.73, 8.73, 9.08, 9.3, 9.3, 9.66, 9.86, 9.59, 9.94, 10.23, 10.41, 10.41, 10.41, 10.04, 10.13, 9.21, 8.84, 8.55, 8.55, 8.27, 7.9, 8.15, 8.15, 8.15, 8.68, 8.68, 9.2, 9.2, 9.2, 9.35, 9.35, 8.96, 8.82, 8.43, 8.43, 8.55, 8.0, 7.73, 7.44, 7.44, 6.87, 6.87, 6.57, 5.65, 5.01, 4.71, 4.65, 4.07, 4.0, 3.43, 3.43, 3.14, 2.79, 3.35, 4.11, 4.44, 5.81, 5.81, 6.26, 6.65, 6.94, 7.42, 7.42, 7.55, 8.0, 8.05, 8.49, 8.94, 9.83, 10.28, 9.83, 6.26, -1.79, -4.85, -5.59, -6.0, -6.08, -5.69, -5.1, -4.96, -4.34, -4.34, -4.34, 6.34, 6.34, 6.64, 6.64, 6.95, 6.95, 7.23, 7.23, 7.23, 7.55, 7.81, 8.15, 8.15, 8.73, 8.73, 8.73, 8.73, 8.73, 9.3, 9.3, 9.3, 9.37, 9.59, 9.59, 9.94, 10.23, 10.23, 10.23, 9.86, 9.76, 9.21, 8.65, 8.29, 8.55, 8.0, 7.9, 7.9, 8.15, 8.15, 8.68, 8.68, 9.07, 9.2, 9.35, 9.35, 9.35, 8.96, 8.82, 8.43, 8.43, 8.0, 7.73, 7.51, 7.51, 6.92, 6.59, 6.87, 6.28, 5.98, 5.35, 4.94, 4.37, 4.07, 3.73, 3.43, 3.43, 2.84, 2.79, 3.35, 3.6, 3.98, 5.36, 5.36, 6.26, 5.81, 6.65, 7.1, 7.55, 7.6, 7.55, 8.05, 8.49, 8.9, 9.83, 10.28, 9.83, 7.15, 0.0, -5.36, -6.66, -7.06, -7.28, -6.7, -6.32, -5.49, -5.13, -5.13, -5.13, 6.34, 6.34, 6.64, 6.64, 6.95, 6.95, 6.95, 7.23, 7.23, 7.55, 7.55, 7.81, 8.15, 8.15, 8.73, 8.73, 8.73, 8.73, 9.08, 9.3, 9.02, 9.37, 9.59, 9.59, 9.59, 9.86, 9.86, 9.86, 9.86, 9.5, 9.21, 8.65, 8.29, 8.37, 8.0, 8.27, 7.9, 7.9, 7.9, 8.43, 8.43, 8.82, 8.96, 9.35, 9.35, 9.35, 9.35, 8.82, 8.82, 8.18, 8.0, 7.73, 7.51, 7.51, 6.92, 6.59, 6.32, 6.28, 5.69, 5.65, 5.01, 4.71, 4.37, 4.07, 3.48, 3.43, 2.84, 3.14, 2.79, 3.07, 3.39, 3.58, 3.58, 5.81, 5.36, 5.75, 6.64, 7.1, 7.1, 7.55, 7.85, 8.45, 8.9, 9.36, 9.8, 9.39, 8.05, 3.35, -4.98, -8.05, -8.56, -8.3, -7.67, -6.68, -5.94, -5.49, -5.49, -5.49, 6.34, 6.34, 6.64, 6.64, 6.95, 6.95, 6.95, 7.23, 7.23, 7.55, 7.55, 7.81, 8.15, 8.15, 8.73, 8.73, 8.73, 8.73, 9.08, 9.3, 9.02, 9.37, 9.59, 9.59, 9.59, 9.86, 9.86, 9.86, 9.86, 9.5, 9.21, 8.65, 8.29, 8.37, 8.0, 8.27, 7.9, 7.9, 7.9, 8.43, 8.43, 8.82, 8.96, 9.35, 9.35, 9.35, 9.35, 8.82, 8.82, 8.18, 8.0, 7.73, 7.51, 7.51, 6.92, 6.59, 6.32, 6.28, 5.69, 5.65, 5.01, 4.71, 4.37, 4.07, 3.48, 3.43, 2.84, 3.14, 2.79, 3.07, 3.39, 3.58, 3.58, 5.81, 5.36, 5.75, 7.1, 7.1, 7.1, 7.55, 7.85, 8.33, 8.77, 9.24, 9.35, 9.39, 8.94, 8.0, 3.35, -5.36, -8.77, -9.06, -8.4, -7.81, -6.64, -6.18, -6.18, -6.18]}, {"header": {"dx": 0.06612293990616946, "dy": 0.0552356325346848, "nx": 98, "ny": 59, "la1": 35.046912555036876, "la2": 31.78801023549047, "lo1": -121.43107172385933, "lo2": -114.95102361305473, "refTime": "2026040900", "parameterCategory": 1, "parameterNumber": 3}, "data": [-6.98, -6.98, -6.98, -6.71, -6.71, -6.97, -6.97, -7.61, -7.33, -7.6, -6.96, -6.33, -5.86, -4.13, -3.25, -2.39, -1.76, -0.93, 0.0, 0.0, 0.0, -1.26, -4.29, -6.02, -5.81, -5.81, -5.73, -5.73, -5.73, -5.29, -5.26, -4.92, -4.47, -3.9, -4.0, -3.79, -4.43, -4.74, -4.58, -4.42, -4.83, -5.63, -5.92, -6.94, -8.2, -8.86, -9.67, -9.67, -8.99, -7.82, -6.43, -4.87, -3.29, -2.41, -0.82, 0.0, 0.0, 0.83, 0.83, 0.83, 1.64, 1.64, 1.58, 1.58, 1.58, 1.58, 1.64, 1.58, 1.7, 2.41, 2.49, 2.49, 2.39, 2.59, 1.6, 0.85, 0.0, 0.0, 0.0, -0.96, -2.23, -2.23, -0.98, 0.0, 1.13, 3.16, 4.43, 5.06, 5.37, 5.37, 6.18, 6.18, 7.2, 6.82, 6.82, 6.11, 5.24, 5.24, -6.98, -6.98, -6.33, -6.71, -6.71, -6.97, -6.97, -7.61, -7.33, -7.33, -6.97, -7.51, -5.63, -4.5, -4.54, -3.61, -1.75, -1.16, -1.26, -1.67, -2.39, -2.58, -4.14, -6.64, -6.26, -6.26, -5.81, -6.2, -6.02, -5.51, -5.51, -4.82, -4.47, -4.47, -4.57, -4.54, -5.15, -5.06, -5.77, -5.69, -6.18, -6.98, -8.24, -9.7, -11.29, -11.83, -11.37, -10.43, -8.84, -6.56, -5.0, -4.13, -3.39, -2.15, -1.52, -0.8, 0.0, 0.0, 0.0, 0.0, 0.83, 0.83, 0.8, 0.8, 0.8, 0.83, 0.83, 0.8, 1.63, 1.63, 2.49, 2.49, 1.69, 1.62, 0.85, 0.0, 0.0, 0.0, 0.0, -0.96, -2.23, -2.23, -0.98, 0.0, 1.13, 3.16, 4.43, 5.06, 5.37, 5.37, 6.18, 6.18, 7.2, 6.82, 6.82, 6.11, 5.24, 5.24, -6.98, -6.98, -6.33, -6.71, -6.71, -6.97, -6.97, -7.61, -7.33, -7.61, -6.98, -6.06, -6.84, -5.86, -4.31, -3.36, -2.47, -2.47, -2.7, -2.39, -3.32, -3.45, -4.0, -6.13, -7.6, -6.71, -6.26, -6.2, -6.02, -6.45, -6.02, -6.2, -5.81, -5.81, -4.98, -5.72, -5.82, -6.11, -7.06, -7.76, -8.27, -9.85, -11.06, -12.72, -12.64, -11.92, -9.49, -7.9, -6.57, -4.92, -4.07, -3.36, -2.39, -1.69, -1.45, -0.8, -0.8, 0.0, 0.0, 0.0, 0.0, 0.0, 0.8, 0.8, 0.83, 0.83, 0.83, 0.8, 0.82, 1.56, 1.62, 1.62, 0.85, 0.82, 0.0, 0.0, -0.89, 0.0, -0.78, -1.83, -2.84, -1.13, 0.0, 2.53, 3.6, 4.19, 4.81, 5.06, 5.49, 5.49, 5.82, 6.57, 6.21, 6.6, 6.18, 5.37, 4.42, 4.42, -6.98, -6.98, -6.71, -6.71, -6.71, -6.97, -7.61, -7.33, -7.33, -7.61, -7.3, -6.97, -8.12, -6.2, -5.76, -4.8, -3.95, -4.44, -4.25, -3.36, -3.36, -3.61, -3.87, -5.37, -7.1, -7.6, -7.15, -6.65, -6.65, -7.1, -7.1, -7.55, -7.15, -7.6, -7.5, -7.6, -7.44, -8.37, -9.43, -10.29, -11.6, -12.84, -12.78, -12.09, -10.34, -8.95, -6.7, -5.14, -4.07, -3.36, -2.97, -2.59, -1.62, -1.62, -0.85, -0.82, -0.8, -0.83, 0.0, 0.0, 0.0, 0.83, 0.8, 0.83, 0.83, 0.8, 0.8, 1.42, 1.42, 1.45, 0.85, 0.82, 0.82, 0.72, 0.0, -0.85, -2.51, -1.72, -1.84, -2.68, -2.53, 0.0, 2.8, 4.34, 4.98, 5.21, 5.15, 5.15, 5.58, 5.6, 5.6, 5.94, 5.75, 5.58, 5.49, 4.58, 4.16, 4.58, -6.7, -6.98, -6.71, -6.71, -6.71, -6.97, -7.61, -7.33, -7.6, -7.61, -7.6, -7.27, -8.22, -6.15, -5.76, -5.76, -5.41, -4.8, -5.14, -4.92, -4.8, -5.1, -3.87, -5.21, -6.8, -8.05, -8.49, -8.49, -8.49, -7.6, -8.05, -8.49, -8.94, -8.94, -10.2, -10.41, -10.46, -10.94, -11.88, -12.89, -12.89, -11.14, -10.12, -7.9, -7.24, -5.63, -4.8, -3.95, -3.25, -2.49, -2.49, -1.69, -0.85, 0.0, 0.0, 0.0, 0.0, 0.0, 0.0, 0.0, 0.0, 0.83, 0.8, 1.58, 1.58, 1.58, 1.63, 1.63, 1.63, 1.69, 1.62, 1.68, 1.47, 0.85, 0.85, -0.78, -2.99, -1.99, -0.96, -2.68, -0.99, 2.53, 4.92, 5.36, 5.09, 5.6, 5.21, 5.21, 5.2, 5.09, 5.29, 5.09, 5.51, 4.54, 4.74, 4.29, 4.29, 5.15, -6.7, -6.61, -6.33, -6.71, -6.71, -6.97, -7.61, -7.33, -7.61, -7.61, -7.6, -6.64, -7.59, -6.31, -5.52, -5.76, -5.63, -6.0, -6.57, -6.57, -6.98, -6.7, -7.27, -7.27, -9.04, -8.85, -9.39, -9.39, -9.39, -9.39, -8.49, -8.9, -9.24, -9.7, -9.58, -10.02, -10.43, -10.28, -11.88, -12.47, -11.88, -10.59, -8.22, -6.7, -5.86, -5.63, -5.0, -4.13, -3.16, -2.41, -2.41, -1.63, -0.82, 0.0, 0.0, 0.0, 0.0, 0.0, 0.0, 0.0, 0.0, 0.8, 0.8, 1.7, 1.7, 1.63, 1.63, 1.69, 1.69, 2.49, 2.59, 2.47, 2.57, 2.57, 1.75, 0.0, -1.08, 0.0, 0.0, 0.0, 2.23, 4.82, 5.36, 4.92, 4.82, 4.57, 4.6, 4.98, 4.82, 4.47, 4.47, 4.82, 4.57, 4.19, 4.43, 4.74, 5.15, 5.58, -6.34, -6.61, -6.61, -6.71, -6.71, -6.97, -7.61, -7.61, -7.95, -7.95, -7.3, -6.28, -6.53, -5.06, -5.43, -5.14, -5.63, -5.86, -6.45, -7.44, -7.73, -8.01, -7.82, -8.02, -9.21, -9.76, -9.83, -9.83, -9.83, -8.94, -9.83, -8.9, -9.06, -8.95, -9.49, -9.83, -10.43, -10.16, -9.86, -10.55, -11.2, -10.16, -9.66, -8.53, -7.24, -6.57, -5.63, -5.0, -5.0, -3.34, -3.34, -2.41, -1.58, -0.8, -0.83, -0.77, 0.0, 0.0, 0.0, 0.0, 0.0, 0.82, 0.82, 0.82, 1.63, 1.63, 1.69, 2.39, 2.39, 3.25, 3.36, 2.47, 2.35, 1.75, 1.75, 1.63, 0.88, 0.0, 0.0, 1.4, 3.9, 4.92, 4.34, 3.58, 3.58, 3.13, 3.58, 3.58, 4.02, 3.58, 3.13, 3.47, 4.4, 4.6, 4.54, 5.21, 5.21, 5.2, -6.34, -6.61, -6.61, -6.33, -6.71, -6.97, -7.61, -7.61, -7.95, -8.24, -7.23, -6.15, -6.32, -6.31, -5.86, -5.41, -5.2, -5.6, -6.21, -7.12, -7.24, -6.53, -7.25, -7.38, -7.35, -8.17, -8.94, -9.39, -9.39, -9.83, -10.28, -11.18, -11.4, -11.03, -9.74, -10.01, -9.49, -8.0, -7.44, -10.05, -10.62, -10.62, -10.16, -9.48, -8.73, -7.27, -5.64, -5.76, -5.63, -4.9, -4.13, -3.29, -3.19, -2.44, -2.44, -1.64, -1.64, -0.83, -0.83, 0.0, 0.0, 0.0, 0.0, 0.0, 0.82, 1.63, 2.49, 3.36, 4.25, 4.13, 3.39, 2.49, 0.82, 0.0, 0.0, 0.76, 0.83, 0.0, 0.0, 1.9, 2.98, 2.84, 1.98, 0.85, 1.0, 1.0, 1.9, 2.21, 2.21, 2.8, 2.68, 3.13, 4.82, 4.98, 5.2, 5.2, 5.51, 5.51, -6.34, -6.34, -6.61, -6.61, -6.71, -6.97, -7.61, -7.61, -7.95, -7.93, -7.17, -6.95, -9.48, -9.76, -8.85, -7.93, -7.51, -7.01, -6.43, -6.94, -7.24, -6.94, -6.15, -6.05, -5.8, -6.3, -7.5, -8.05, -8.94, -10.28, -11.18, -12.01, -12.47, -11.99, -10.43, -9.75, -9.63, -7.06, -4.0, -4.66, -8.6, -10.6, -10.21, -8.93, -7.81, -6.79, -7.21, -6.3, -5.9, -5.76, -5.64, -4.8, -4.17, -3.91, -3.19, -3.19, -2.44, -2.34, -1.58, -1.58, -0.82, -0.82, 0.0, 0.0, 1.62, 3.36, 4.92, 5.14, 4.13, 3.16, 1.58, 0.0, 0.0, -0.72, -0.74, 0.0, 0.0, 0.0, 0.0, 2.98, 4.47, 1.55, -0.0, -0.0, -0.0, -0.0, -0.0, -0.0, -0.0, 1.0, 2.4, 3.58, 4.47, 5.73, 5.51, 5.73, 5.29, 5.29, -6.34, -6.61, -6.61, -6.61, -6.71, -6.97, -7.61, -7.61, -7.95, -7.93, -7.51, -7.9, -8.0, -9.38, -11.39, -10.3, -10.22, -10.54, -10.69, -9.76, -9.42, -9.42, -9.21, -8.94, -8.2, -6.16, -6.28, -7.94, -9.39, -10.28, -10.66, -11.57, -11.57, -10.47, -9.54, -9.03, -7.5, 0.0, 4.47, 4.02, -2.8, -7.21, -9.24, -8.4, -7.2, -6.79, -6.01, -5.1, -4.96, -5.06, -5.06, -4.92, -4.8, -5.0, -4.17, -4.17, -4.17, -3.42, -3.42, -3.29, -2.41, -1.69, 0.0, 1.75, 4.34, 5.64, 5.76, 5.09, 3.61, 1.64, 0.0, -2.14, -2.88, -2.82, -2.28, -2.12, -1.65, -0.83, 0.0, 3.84, 5.34, 3.58, -0.0, -0.76, -0.81, -0.81, -1.66, -0.79, -0.0, 0.85, 2.6, 4.15, 5.29, 5.81, 5.73, 5.73, 5.73, 5.51, -6.7, -6.61, -6.33, -6.33, -6.71, -6.71, -7.33, -7.61, -7.95, -7.93, -7.81, -8.65, -8.78, -9.08, -10.92, -10.9, -11.34, -8.94, -8.38, -8.29, -11.28, -12.03, -11.34, -10.92, -10.43, -7.96, -7.27, -7.2, -7.94, -8.85, -9.32, -9.68, -8.77, -5.4, -2.23, -1.55, 0.0, 5.09, 4.6, 4.11, 2.68, -1.98, -7.12, -9.21, -8.15, -6.79, -6.01, -5.1, -4.12, -3.45, -3.32, -3.21, -3.36, -4.25, -4.13, -4.01, -4.17, -4.87, -4.87, -5.0, -3.51, -0.8, 2.51, 6.01, 7.35, 6.83, 6.7, 5.63, 3.42, 0.8, -2.45, -5.1, -5.0, -5.18, -4.28, -3.6, -3.09, -1.84, 1.99, 5.82, 6.07, 4.74, 2.68, -1.6, -2.4, -2.98, -2.53, -1.66, -0.0, 0.87, 2.84, 4.57, 5.26, 5.36, 5.73, 6.2, 6.02, 6.02, -6.7, -6.98, -6.71, -6.33, -6.71, -6.71, -7.33, -7.61, -7.95, -7.93, -7.86, -8.73, -9.08, -9.17, -8.24, -7.33, -6.44, -6.69, -7.27, -7.81, -7.55, -6.67, -6.64, -10.12, -9.17, -7.96, -7.24, -2.86, -3.16, -3.16, -5.6, -6.45, -3.72, 1.2, 3.6, 4.0, 4.22, 4.54, 3.63, 2.6, 2.6, 0.96, -2.68, -7.21, -8.0, -6.82, -6.01, -5.03, -3.6, -2.69, -2.54, -1.75, -1.75, -1.6, -2.47, -1.6, -1.6, -2.47, -4.2, -4.26, 0.0, 4.54, 7.76, 8.05, 8.43, 8.38, 7.9, 7.36, 5.63, 4.07, -0.79, -5.3, -6.68, -6.73, -6.01, -5.24, -3.55, 0.0, 4.81, 6.7, 6.11, 5.37, 4.42, 1.79, -0.0, -1.0, -0.0, 1.26, 2.97, 2.98, 3.6, 4.15, 4.66, 5.36, 6.2, 6.64, 6.45, 6.16, -6.7, -6.98, -6.71, -6.33, -6.33, -6.33, -6.97, -7.61, -7.61, -7.93, -7.9, -8.45, -9.08, -9.48, -8.86, -7.93, -6.43, -5.6, -5.43, -5.45, -5.7, -5.04, -4.57, -3.27, -2.8, -2.77, -2.23, -1.05, 0.0, 0.0, 0.0, 0.0, 2.23, 4.0, 4.15, 4.38, 4.22, 4.19, 3.63, 2.6, 1.84, 0.88, 0.0, -3.79, -6.13, -6.52, -5.37, -3.2, -1.4, -1.25, -0.79, -1.58, -1.52, 0.0, 1.4, 3.0, 3.2, 1.4, -3.16, -1.58, 6.2, 8.33, 8.82, 8.82, 8.95, 9.42, 8.94, 9.66, 8.68, 8.4, 3.39, -4.92, -7.1, -7.12, -6.18, -5.49, -1.83, 3.63, 6.7, 6.7, 5.3, 4.26, 3.79, 4.16, 4.54, 4.57, 4.98, 5.34, 6.28, 5.75, 5.31, 5.36, 5.77, 6.26, 6.71, 6.65, 6.94, 6.57, -6.7, -6.7, -6.98, -6.71, -6.33, -6.33, -6.71, -7.33, -7.61, -7.93, -8.22, -8.5, -8.53, -9.48, -9.84, -9.48, -8.14, -6.56, -5.73, -5.14, -4.51, -4.02, -3.47, -2.77, -2.3, -1.72, -1.7, -1.14, -0.55, -0.54, -0.5, 0.0, 1.7, 2.84, 4.0, 4.82, 4.22, 4.54, 2.6, 1.84, 0.82, 0.0, 0.0, -1.52, -4.43, -4.43, -1.13, 1.55, 1.41, 1.52, 0.0, 0.0, 0.0, 1.7, 5.6, 5.2, 4.29, 1.4, 0.0, 3.9, 8.94, 10.2, 9.97, 9.21, 8.3, 8.4, 8.05, 8.63, 9.1, 7.81, 4.29, -4.02, -6.26, -6.94, -6.16, -2.23, 4.89, 7.44, 7.41, 5.89, 5.1, 4.12, 3.91, 3.2, 5.46, 6.57, 6.94, 6.7, 6.94, 6.94, 6.54, 6.98, 6.71, 6.65, 6.26, 6.65, 6.45, 6.16, -6.7, -6.7, -6.98, -6.71, -6.71, -6.33, -6.33, -6.71, -7.33, -7.61, -7.93, -8.53, -8.85, -9.19, -9.82, -9.84, -9.45, -8.33, -6.96, -6.33, -5.73, -4.58, -4.07, -3.5, -3.44, -2.95, -2.93, -2.29, -1.74, -1.71, -1.65, -0.51, 0.0, 1.41, 4.46, 5.64, 6.0, 4.43, 2.49, 0.0, 0.0, 0.0, -1.32, -1.32, -1.52, 0.0, 5.09, 6.07, 4.84, 2.98, 1.52, 0.0, 2.8, 5.01, 5.6, 4.11, 1.52, 0.0, 0.0, 5.37, 8.14, 9.03, 8.0, 7.6, 7.28, 6.63, 7.07, 6.98, 6.32, 5.21, 2.47, -4.34, -6.65, -5.81, 0.0, 6.21, 8.42, 8.03, 6.53, 5.76, 4.34, 3.32, 2.31, 2.26, 4.11, 6.16, 6.94, 6.7, 6.79, 7.12, 7.2, 6.94, 6.66, 6.26, 6.2, 6.2, 6.02, 6.02, -6.7, -6.7, -6.98, -6.71, -6.71, -6.97, -6.71, -6.71, -6.71, -7.61, -7.93, -8.53, -8.56, -9.19, -9.5, -9.84, -9.47, -9.42, -8.3, -7.63, -7.0, -5.67, -5.18, -4.66, -4.6, -4.04, -3.59, -2.36, -1.73, -1.14, -1.11, -1.07, -0.57, 0.0, 1.52, 3.84, 5.15, 4.29, 1.32, 0.0, -0.89, -0.95, 0.0, 0.0, 1.32, 4.43, 6.58, 6.14, 4.84, 3.22, 3.0, 2.49, 3.68, 5.06, 4.02, 2.49, 0.0, 0.0, 1.26, 4.66, 6.73, 7.21, 6.63, 5.69, 4.29, 4.29, 4.74, 3.91, 4.37, 3.8, 0.96, -3.9, -4.82, 2.24, 7.76, 9.3, 8.93, 7.08, 6.15, 5.06, 4.2, 2.57, 1.67, 2.64, 4.54, 5.51, 6.94, 7.12, 7.21, 7.63, 7.35, 6.79, 6.26, 5.75, 5.36, 5.31, 5.16, 5.16, -6.98, -6.7, -6.98, -6.98, -6.71, -6.71, -6.97, -6.71, -6.71, -6.98, -7.61, -8.24, -8.87, -9.19, -9.5, -9.22, -9.48, -9.45, -9.0, -8.3, -7.63, -7.0, -6.02, -5.15, -4.07, -2.85, -2.28, -1.71, -1.15, -0.57, -0.58, -1.12, -2.23, -2.33, 0.0, 2.47, 3.47, 2.8, 1.41, 0.0, -1.32, 0.0, 0.0, 2.6, 3.68, 6.13, 6.64, 5.6, 4.43, 4.02, 2.66, 3.6, 3.6, 3.8, 3.8, 2.33, 1.26, 1.16, 2.28, 5.98, 6.69, 6.01, 4.71, 3.91, 2.66, 2.8, 3.0, 3.0, 2.82, 2.82, 1.63, 0.0, 3.16, 7.82, 9.4, 8.93, 8.01, 7.12, 6.45, 5.14, 4.07, 2.57, 2.54, 3.11, 4.89, 5.2, 6.45, 7.12, 7.63, 7.76, 7.03, 6.64, 6.55, 5.81, 5.36, 4.92, 5.29, 5.29, -6.98, -6.7, -6.7, -6.98, -6.71, -6.71, -6.97, -6.71, -6.71, -6.71, -7.33, -7.95, -8.58, -8.59, -9.21, -8.86, -8.83, -8.79, -8.77, -7.63, -6.96, -6.52, -5.85, -4.13, -2.24, -1.16, -1.18, -1.18, -1.18, -1.17, -1.75, -2.36, -2.85, -2.28, 0.0, 0.0, 0.0, 0.0, 0.0, 0.0, 0.0, 1.3, 2.98, 3.76, 5.06, 5.93, 6.52, 5.36, 4.02, 3.68, 3.91, 3.6, 3.8, 3.35, 2.46, 2.46, 2.46, 2.28, 3.87, 4.88, 4.88, 4.66, 3.52, 2.54, 1.25, 0.89, 0.0, 0.0, 0.0, 0.0, 1.26, 3.21, 6.2, 8.01, 7.51, 6.56, 6.43, 6.43, 5.6, 4.13, 3.36, 3.15, 3.4, 4.81, 5.21, 5.6, 6.16, 6.7, 7.63, 7.76, 7.82, 7.42, 6.54, 6.07, 5.81, 5.36, 4.92, 4.92, -6.98, -6.7, -6.7, -6.98, -6.71, -6.71, -6.71, -6.71, -6.71, -6.97, -6.97, -7.61, -8.24, -8.59, -9.21, -10.54, -8.58, -8.81, -8.14, -6.33, -5.81, -5.98, -5.67, -5.67, -3.95, -3.47, -2.24, -3.93, -4.04, -3.44, -4.04, -3.42, -2.3, -1.12, -0.57, -0.61, -0.99, -1.57, -1.73, 0.0, 0.78, 1.84, 2.49, 4.02, 5.06, 5.37, 4.75, 3.91, 3.68, 2.66, 2.82, 2.54, 2.54, 2.33, 2.33, 2.46, 2.46, 3.7, 4.88, 4.88, 3.87, 2.58, 2.46, 0.79, 0.89, 0.0, 0.0, -0.89, -0.84, 0.0, 1.18, 4.06, 5.55, 5.55, 4.71, 3.34, 2.45, 2.45, 2.37, 2.51, 2.44, 3.4, 4.58, 4.74, 5.58, 5.6, 6.16, 6.28, 7.63, 7.6, 7.82, 7.82, 6.82, 6.54, 6.45, 6.26, 5.81, 5.81, -6.98, -6.7, -6.7, -6.98, -6.71, -6.71, -6.71, -6.71, -6.71, -6.97, -6.97, -7.33, -7.6, -7.96, -9.21, -9.21, -8.86, -8.86, -9.39, -8.06, -7.27, -7.0, -7.7, -8.62, -8.74, -8.03, -7.08, -5.77, -5.73, -5.7, -5.67, -3.25, -0.51, 0.0, 0.0, -0.54, -1.0, -1.8, -1.16, 0.0, 0.55, 1.59, 1.61, 2.16, 2.86, 3.91, 3.91, 2.4, 2.82, 2.66, 2.66, 2.4, 2.54, 2.54, 2.4, 3.45, 3.45, 3.8, 4.0, 3.45, 2.28, 1.26, 0.0, 0.0, 0.0, 0.0, -0.83, -0.89, -0.89, 0.0, 0.79, 2.45, 3.28, 2.43, 0.82, 0.0, -0.79, -0.78, 0.0, 0.78, 2.69, 3.4, 4.58, 5.06, 5.15, 5.43, 5.43, 6.0, 6.54, 7.47, 7.82, 7.82, 6.79, 6.82, 6.54, 7.1, 6.2, 6.2, -6.98, -6.7, -6.7, -6.98, -6.98, -6.71, -6.71, -6.71, -6.97, -6.97, -6.97, -7.33, -7.6, -7.96, -8.87, -9.21, -9.22, -8.59, -8.58, -9.49, -9.8, -8.16, -8.81, -9.48, -9.84, -9.19, -7.7, -7.06, -6.2, -5.73, -4.98, -1.57, 0.0, 0.0, 0.0, 0.0, 0.0, -0.53, -0.55, 0.0, 0.54, 1.12, 1.69, 1.63, 2.4, 2.66, 2.82, 2.4, 1.25, 1.18, 1.4, 1.18, 2.4, 3.91, 3.6, 4.03, 4.12, 4.37, 3.45, 1.26, 0.0, 0.0, 0.0, 0.0, -0.89, 0.0, -0.89, 0.0, 0.0, 0.0, 1.69, 3.32, 2.41, 0.79, -1.58, -3.91, -5.02, -4.06, -2.41, 0.0, 2.67, 4.16, 4.58, 4.74, 5.15, 5.58, 5.58, 6.0, 6.54, 7.06, 7.76, 7.44, 6.73, 6.08, 6.4, 6.55, 6.07, 6.07, -6.98, -6.7, -6.7, -6.7, -6.98, -6.71, -6.71, -6.71, -6.97, -6.97, -6.7, -7.33, -7.33, -7.59, -8.23, -8.59, -8.85, -8.86, -9.21, -9.21, -8.57, -7.5, -8.2, -9.21, -9.84, -9.42, -8.52, -7.16, -5.85, -5.05, -4.36, -1.08, 0.0, 0.0, 0.0, 0.6, 0.42, 0.0, 0.0, 0.0, 0.0, 0.55, 1.16, 1.1, 1.55, 2.22, 2.4, 1.25, 0.0, 1.18, 1.32, 2.49, 3.68, 3.91, 3.91, 4.14, 4.26, 4.34, 3.7, 1.2, 0.0, 0.0, -0.8, -1.75, -1.65, -1.65, -0.84, 0.0, 1.65, 3.7, 4.88, 6.08, 4.81, 1.58, -3.72, -5.3, -6.58, -5.78, -3.8, 0.78, 3.72, 4.74, 5.49, 5.49, 5.82, 5.82, 6.21, 6.21, 6.54, 6.94, 7.6, 7.32, 6.35, 6.08, 6.0, 6.36, 6.94, 6.94, -6.98, -6.98, -6.98, -6.7, -6.98, -6.71, -6.71, -6.71, -6.71, -6.97, -6.96, -6.96, -7.33, -7.59, -7.85, -7.96, -8.2, -8.58, -8.85, -9.21, -8.81, -7.7, -6.85, -6.9, -8.22, -8.83, -8.33, -7.12, -5.94, -5.3, -4.07, -2.3, -1.16, -0.51, 0.0, 0.0, 0.54, 0.53, 0.0, 0.0, 0.0, 0.57, 0.59, 0.56, 1.07, 1.76, 1.25, 0.0, 0.0, 1.32, 3.0, 4.02, 5.06, 4.29, 3.68, 3.91, 3.55, 4.26, 3.52, 1.65, 0.0, -0.8, -2.44, -2.54, -2.54, -2.4, 0.0, 1.72, 5.24, 6.01, 4.96, 5.21, 3.49, 4.02, 3.16, -1.2, -4.22, -4.84, -0.87, 2.53, 4.22, 5.21, 5.58, 6.21, 6.21, 5.82, 6.21, 6.21, 6.44, 6.82, 7.2, 7.32, 6.35, 6.08, 6.0, 6.79, 6.79, 6.79, -6.69, -6.69, -6.98, -6.7, -6.98, -6.71, -6.71, -6.71, -6.71, -6.97, -6.96, -7.22, -7.33, -7.59, -7.85, -7.57, -7.83, -7.95, -8.2, -8.57, -8.14, -7.66, -6.48, -6.36, -6.46, -6.9, -7.28, -7.0, -6.48, -5.94, -4.63, -4.1, -2.77, -1.71, -0.57, 0.0, 0.5, 0.57, 0.5, 0.61, 0.53, 0.57, 0.56, 0.52, 0.59, 0.55, 0.0, 0.0, 1.4, 4.02, 5.06, 5.06, 4.29, 3.68, 2.66, 2.66, 2.8, 2.64, 2.54, 2.54, 0.0, -0.89, -1.73, -1.73, -1.84, 0.0, 4.43, 7.44, 7.44, 6.01, 3.2, 0.0, 2.44, 4.17, 4.8, 2.82, 0.0, 0.0, 3.58, 3.58, 4.47, 4.85, 5.59, 5.75, 5.82, 5.58, 5.58, 5.82, 6.18, 6.79, 7.2, 6.7, 6.39, 5.43, 6.0, 6.79, 6.54, 6.54, -6.69, -6.69, -6.98, -6.7, -6.7, -6.98, -6.71, -6.71, -6.71, -6.97, -6.96, -7.22, -7.59, -7.59, -7.57, -7.57, -7.83, -7.55, -7.95, -8.2, -8.16, -7.45, -7.16, -7.16, -6.33, -6.4, -6.43, -6.4, -6.56, -5.81, -5.3, -4.7, -3.99, -2.77, -1.67, -0.55, 0.0, 0.0, 0.54, 0.59, 0.53, 0.57, 0.56, 0.56, 0.0, 0.0, -0.53, 0.0, 1.7, 2.86, 2.86, 3.45, 2.49, 2.49, 2.49, 2.49, 1.32, 0.96, 0.0, 1.4, 1.25, 0.83, 0.83, 0.0, 1.83, 5.6, 8.14, 8.4, 7.44, 2.51, 0.0, 0.0, 1.13, 3.23, 3.23, 3.29, 1.58, 2.23, 4.47, 3.9, 3.95, 4.47, 4.85, 5.09, 5.6, 5.21, 5.58, 5.49, 5.77, 6.7, 7.06, 6.7, 6.06, 6.18, 6.0, 6.0, 6.54, 6.54, -6.69, -6.69, -6.98, -6.7, -6.7, -6.61, -6.61, -6.33, -6.71, -6.97, -6.7, -6.96, -7.33, -7.59, -7.57, -7.57, -7.57, -7.55, -7.55, -7.55, -7.76, -7.48, -7.66, -7.63, -7.16, -7.0, -6.56, -6.36, -5.88, -5.88, -5.67, -5.25, -4.48, -3.42, -2.17, -1.06, 0.0, 0.0, 0.0, 0.53, 0.57, 0.57, 0.56, 0.59, 0.56, 0.0, 0.0, 0.0, 0.59, 1.08, 1.27, 1.13, 1.52, 2.8, 2.8, 1.32, 0.0, 0.0, 0.0, 1.32, 2.54, 2.33, 2.67, 2.64, 4.89, 8.14, 9.06, 8.0, 5.24, 3.2, 0.84, 0.0, 0.82, 2.44, 3.32, 3.42, 0.76, 1.0, 2.98, 3.35, 3.35, 3.47, 4.02, 4.41, 5.09, 5.6, 5.58, 5.15, 5.37, 6.06, 7.06, 6.7, 6.08, 5.43, 5.82, 5.82, 6.4, 6.4, -6.69, -6.69, -6.69, -6.7, -6.7, -6.34, -6.61, -6.33, -6.71, -6.97, -6.7, -6.96, -7.33, -7.59, -7.57, -7.57, -7.57, -7.55, -7.55, -7.55, -7.53, -7.5, -7.7, -7.2, -7.63, -7.63, -6.96, -7.0, -6.33, -5.88, -5.21, -5.25, -4.72, -3.78, -2.73, -1.09, -0.54, 0.0, 0.0, 0.0, 0.0, 0.0, 0.55, 0.55, 0.58, 0.55, 0.0, 0.0, 0.0, 0.0, 0.0, 0.0, 0.0, 0.65, 0.88, 0.88, 0.0, 0.0, 0.96, 1.98, 1.25, 1.75, 1.26, 2.64, 7.2, 8.14, 8.3, 5.69, 4.42, 2.67, 0.84, 0.0, 0.0, 0.79, 2.51, 3.29, 0.89, -1.34, -0.0, 1.8, 1.8, 1.74, 2.6, 4.02, 4.47, 5.09, 5.21, 5.15, 5.06, 6.11, 6.39, 6.35, 6.44, 5.82, 5.09, 5.43, 6.0, 6.0, -6.69, -6.69, -6.69, -6.98, -6.7, -6.34, -6.61, -6.33, -6.33, -6.97, -6.7, -6.96, -6.94, -7.59, -7.57, -7.57, -7.83, -7.55, -7.55, -7.55, -7.55, -7.76, -7.48, -7.0, -7.2, -7.2, -7.66, -7.66, -7.2, -6.52, -5.85, -5.21, -4.48, -3.94, -2.73, -1.73, -0.58, -0.54, -0.56, 0.0, 0.0, 0.0, 0.0, 0.58, 1.07, 1.07, 0.54, 0.0, -1.05, -1.11, -1.16, -0.54, -0.57, 0.0, 0.0, 0.0, 0.0, 0.0, 1.7, 1.84, 0.83, 0.0, 0.0, 3.55, 7.35, 8.79, 6.79, 4.42, 2.67, 0.84, 0.0, 0.0, -0.85, 0.0, 0.0, 0.79, 0.8, -1.9, -2.0, -0.0, -0.0, -0.0, 1.2, 3.6, 4.02, 4.38, 4.8, 4.89, 5.06, 5.37, 5.69, 6.01, 6.11, 5.43, 4.81, 5.21, 5.43, 5.43, -6.69, -6.69, -6.69, -6.98, -6.7, -6.34, -6.61, -6.33, -6.33, -6.33, -6.7, -6.96, -6.94, -7.59, -7.57, -7.57, -7.57, -7.55, -7.55, -7.55, -7.55, -7.53, -7.73, -7.7, -7.0, -7.03, -7.03, -7.24, -7.0, -6.8, -6.33, -5.7, -5.32, -3.91, -2.86, -1.71, -1.07, -1.06, -0.56, -0.56, -0.54, 0.0, 0.0, 0.0, 0.85, 1.73, 1.09, 0.0, -1.16, -1.84, -1.9, -1.24, -1.26, -0.6, -0.8, 0.0, 0.0, 1.41, 1.83, 1.7, 0.0, 0.0, 0.0, 5.06, 7.76, 7.42, 6.73, 4.26, 1.73, 0.0, -0.85, -0.81, -1.68, -1.68, -1.62, -0.79, 0.0, 0.0, -1.98, -2.84, -1.7, -0.0, 1.13, 2.21, 3.74, 4.02, 4.38, 4.6, 4.74, 4.42, 4.26, 4.03, 3.79, 4.36, 4.01, 4.84, 5.75, 5.75, -6.69, -6.69, -6.69, -6.69, -6.34, -6.34, -6.34, -6.61, -6.33, -6.33, -6.97, -6.96, -6.94, -7.19, -7.32, -7.57, -7.57, -7.55, -7.55, -7.55, -6.88, -7.53, -7.5, -7.48, -7.7, -7.03, -6.56, -7.03, -7.03, -6.82, -6.36, -5.73, -5.14, -4.08, -3.32, -2.21, -1.69, -1.12, -1.18, -1.11, -1.12, -0.54, -0.54, -0.57, 0.0, 0.85, 0.0, 0.0, -0.45, -0.63, -0.89, -1.34, -1.6, -0.95, -0.6, 0.0, 0.0, 1.16, 1.83, 0.96, 0.0, -0.79, 1.84, 5.82, 6.18, 5.82, 5.77, 6.01, 2.64, 0.0, -1.73, -0.8, 0.0, 0.0, -0.82, -1.63, -0.8, 0.0, 0.0, -0.8, 0.0, 1.0, 1.76, 2.23, 2.5, 3.47, 3.58, 3.22, 3.22, 3.2, 2.4, 2.67, 2.35, 3.55, 3.22, 4.84, 5.34, 5.34, -6.97, -6.97, -6.69, -6.35, -6.63, -6.34, -6.34, -6.61, -6.33, -6.33, -6.97, -6.7, -6.94, -6.94, -6.92, -7.57, -7.57, -7.31, -7.13, -7.13, -6.88, -7.1, -7.76, -7.73, -7.48, -7.03, -6.56, -6.36, -6.36, -6.4, -5.92, -5.73, -5.14, -4.36, -3.3, -2.86, -2.21, -1.67, -1.75, -1.65, -1.18, -1.12, -1.14, -1.1, -1.14, -2.69, -1.68, 0.0, 0.0, -0.0, 0.0, -0.89, -0.6, -0.6, -0.6, 0.0, 0.0, 0.65, 0.53, 0.0, 0.0, 0.0, 3.55, 4.74, 4.29, 3.47, 3.63, 4.02, 4.29, 1.32, 0.0, 1.84, 3.45, 3.25, 1.58, 0.0, -1.7, -0.82, 0.0, 0.86, 2.82, 5.04, 3.07, 1.9, 1.61, 1.86, 1.34, 2.6, 2.2, 1.45, 0.76, 0.79, 0.78, 0.82, 2.98, 4.46, 5.59, 5.59, -6.97, -6.97, -6.35, -6.35, -6.63, -6.34, -6.34, -6.61, -6.33, -6.33, -6.97, -6.97, -6.96, -6.94, -7.19, -6.92, -7.16, -6.9, -7.13, -7.13, -7.13, -6.88, -7.1, -7.5, -7.73, -7.03, -6.82, -6.4, -7.2, -5.8, -5.77, -5.77, -5.14, -4.54, -3.94, -3.32, -2.69, -2.19, -2.3, -2.17, -1.75, -1.75, -1.67, -1.69, -2.26, -3.18, -2.21, -0.56, 0.0, 0.0, 0.0, 0.0, -0.54, -0.65, -0.65, 0.0, 0.0, 0.0, 0.0, 0.0, 0.0, 0.89, 3.33, 3.11, 2.47, 1.6, 0.0, 0.0, 1.23, 1.25, 2.64, 4.42, 4.96, 3.53, 2.39, 0.0, -0.8, 0.0, 0.78, 3.02, 5.0, 5.68, 5.09, 1.6, 0.63, 0.6, 0.0, 0.0, 0.96, 0.74, 0.0, 0.0, 0.0, 0.0, 2.53, 4.4, 5.59, 5.59, -6.67, -6.67, -6.35, -6.35, -6.35, -6.34, -6.34, -6.34, -6.33, -6.33, -6.97, -6.97, -6.96, -6.96, -7.19, -6.92, -7.16, -7.16, -6.9, -6.9, -7.13, -6.88, -7.1, -7.1, -7.06, -7.06, -7.06, -6.85, -6.88, -7.32, -5.83, -5.86, -5.67, -5.26, -4.63, -3.49, -2.83, -2.83, -2.8, -2.28, -2.17, -2.3, -2.3, -2.19, -2.21, -2.71, -2.19, -1.12, 0.0, 0.0, 0.0, 0.0, -0.59, -0.51, -0.59, 0.0, 0.0, 0.0, 0.0, 0.0, 0.0, 1.6, 2.66, 1.84, 0.82, 0.0, 0.0, 0.0, 0.0, 0.0, 2.54, 3.27, 1.75, 0.0, 0.0, 0.0, 0.0, 1.63, 2.82, 3.68, 4.24, 3.6, 2.93, 1.54, 0.0, -0.6, -0.63, -0.6, 0.0, 0.0, 0.0, 0.0, -0.78, 0.0, 3.22, 5.09, 5.59, 5.59, -6.35, -6.35, -6.64, -6.35, -6.35, -6.63, -6.34, -6.34, -6.61, -6.33, -6.71, -6.97, -6.96, -6.96, -6.94, -6.92, -6.92, -7.16, -7.16, -6.9, -7.13, -6.88, -7.1, -7.1, -7.06, -7.06, -6.85, -6.85, -7.5, -7.1, -6.25, -5.64, -5.06, -4.45, -3.81, -3.37, -3.35, -3.49, -3.45, -2.93, -2.8, -2.8, -2.3, -2.3, -2.3, -2.19, -2.19, -1.67, -1.14, -0.55, 0.0, -0.59, -0.54, -1.07, -0.55, 0.0, 0.0, 0.0, 0.0, 0.0, 0.0, 1.41, 1.52, 1.52, 0.88, 0.0, 0.0, 0.0, 0.0, 0.0, 2.4, 2.33, 1.26, -0.85, -0.79, 0.0, 1.58, 3.25, 3.53, 2.81, 1.4, 0.72, 0.71, 0.0, 0.0, -1.79, -2.17, -1.86, 0.0, 0.0, 0.79, 0.0, -0.78, 0.0, 4.15, 5.31, 5.31, 5.31, -6.35, -6.35, -6.64, -6.35, -6.35, -6.63, -6.34, -6.34, -6.61, -6.71, -6.71, -6.97, -6.7, -6.96, -6.96, -7.19, -6.92, -6.92, -7.16, -6.9, -7.13, -6.88, -7.1, -7.1, -7.1, -7.1, -6.85, -6.85, -7.28, -6.85, -6.43, -5.17, -4.42, -3.4, -3.0, -2.77, -2.92, -3.35, -3.3, -3.27, -3.45, -3.3, -2.8, -2.28, -2.17, -2.3, -2.3, -2.3, -1.67, -1.16, -1.1, -1.12, -1.14, -1.14, -0.59, -0.54, 0.0, 0.0, 0.0, 0.0, 0.0, 1.41, 1.41, 1.52, 1.52, 0.0, 0.96, 0.89, 0.83, 0.89, 1.55, 1.2, 1.22, 0.0, -0.78, 0.0, 2.35, 3.2, 3.2, 1.58, 0.0, 0.0, -0.71, -0.73, -0.82, -1.79, -1.79, 0.0, 0.0, 0.83, 0.84, 0.0, 0.0, 1.66, 4.85, 5.31, 5.31, 5.31, -6.35, -6.35, -6.35, -6.35, -6.35, -6.35, -6.34, -6.34, -6.61, -6.71, -6.71, -6.97, -6.7, -6.96, -6.96, -6.94, -6.92, -6.92, -7.16, -7.16, -6.9, -7.13, -6.88, -7.1, -7.53, -7.1, -7.1, -6.88, -7.1, -7.1, -6.43, -5.83, -4.38, -3.35, -2.75, -2.14, -2.29, -2.92, -3.52, -3.94, -4.12, -3.94, -3.3, -2.8, -2.17, -2.17, -2.17, -2.3, -2.3, -2.21, -1.71, -1.63, -1.76, -1.65, -1.14, -1.16, -0.55, -0.57, 0.0, 0.0, 0.0, 0.0, 0.0, 0.0, 0.82, 1.32, 1.72, 1.63, 0.89, 0.89, 0.0, 0.79, 1.14, 0.77, 0.0, 0.0, 0.81, 1.62, 1.63, 0.71, 0.0, -0.71, -1.42, -2.17, -0.81, 1.2, 0.99, 2.0, 1.84, 0.83, 0.84, 0.0, 0.89, 3.22, 4.66, 4.85, 5.29, 5.29, -6.35, -6.35, -6.35, -6.64, -6.35, -6.35, -6.34, -6.34, -6.61, -6.71, -6.71, -6.97, -6.97, -6.96, -6.96, -6.94, -7.19, -6.92, -6.92, -7.16, -6.9, -7.13, -6.88, -7.1, -7.1, -7.1, -7.1, -6.43, -6.43, -6.88, -6.46, -5.83, -5.23, -3.97, -3.35, -2.73, -2.26, -2.75, -3.37, -4.0, -4.16, -3.94, -3.49, -3.29, -2.21, -2.19, -2.3, -2.83, -2.83, -2.86, -2.89, -2.75, -2.44, -2.29, -1.67, -1.7, -1.08, -0.57, 0.0, 0.0, 0.0, 0.0, 0.0, 0.0, 0.0, 0.0, 0.82, 0.0, 0.0, 0.0, 0.0, 0.0, 1.16, 2.24, 1.61, 0.0, 0.0, -0.83, -0.81, -0.73, -0.72, -0.72, -2.21, -2.35, 0.99, 3.6, 3.22, 2.68, 1.6, 0.0, 0.0, 0.0, 1.84, 3.79, 4.98, 4.15, 3.2, 4.15, -6.35, -6.35, -6.35, -6.64, -6.35, -6.35, -6.63, -6.34, -6.34, -6.98, -6.71, -6.97, -6.97, -6.7, -6.96, -6.96, -6.94, -6.92, -6.92, -7.16, -6.9, -6.9, -7.13, -6.88, -7.1, -7.1, -7.1, -6.43, -6.22, -6.46, -6.25, -5.86, -5.02, -4.63, -3.97, -3.52, -2.86, -2.71, -2.89, -3.35, -4.0, -3.97, -4.0, -4.13, -2.21, -1.67, -2.83, -3.49, -3.78, -3.56, -3.6, -3.4, -2.96, -3.0, -2.16, -1.88, -1.57, -1.11, -0.59, 0.0, 0.0, -0.61, 0.0, 0.0, 0.0, 0.0, 0.0, 0.0, 0.0, 0.0, 0.0, 0.0, 1.2, 2.34, 3.1, 2.33, 0.0, -1.6, -2.81, -2.2, -1.46, -1.39, -1.43, 0.0, 4.11, 4.22, 3.22, 1.8, 0.88, 0.0, 0.0, 0.78, 2.76, 3.48, 3.93, 3.22, 2.53, 3.2, -6.35, -6.35, -6.35, -6.35, -6.35, -6.35, -6.63, -6.34, -6.7, -6.98, -6.71, -6.71, -6.97, -6.7, -6.96, -6.96, -6.94, -6.94, -6.92, -6.92, -7.16, -6.9, -7.13, -7.13, -6.88, -6.88, -6.88, -6.43, -6.46, -6.25, -6.27, -5.64, -5.26, -4.63, -3.97, -3.97, -3.49, -3.49, -3.32, -3.35, -3.35, -4.0, -4.45, -3.81, -4.13, -2.83, -3.3, -4.42, -4.44, -4.45, -3.83, -4.08, -3.42, -3.0, -2.82, -2.4, -1.76, -1.13, -0.59, 0.0, 0.0, -0.61, -0.59, -1.23, 0.0, 0.0, -0.82, -0.89, 0.0, 0.0, 0.0, 0.0, 0.0, 1.16, 3.73, 5.55, 3.87, 0.0, -1.56, -1.43, 0.0, 0.0, 1.52, 4.5, 5.78, 5.21, 3.22, 1.83, 0.88, 0.89, 0.83, 1.72, 2.76, 3.48, 3.48, 2.95, 2.41, 2.53, -6.35, -6.35, -6.35, -6.35, -6.35, -6.35, -6.35, -6.34, -6.7, -6.98, -6.98, -6.71, -6.97, -6.7, -6.96, -6.96, -6.94, -6.94, -6.92, -6.92, -6.92, -6.9, -6.9, -7.13, -6.88, -6.88, -6.43, -6.43, -6.46, -5.8, -5.62, -5.0, -5.02, -4.4, -4.42, -4.42, -3.94, -3.94, -3.94, -3.76, -3.78, -4.0, -4.45, -5.1, -5.09, -6.33, -4.42, -4.45, -4.47, -4.19, -3.85, -3.85, -3.45, -3.22, -2.82, -2.4, -2.22, -1.13, -0.59, -0.59, -0.61, -0.61, -1.41, -1.52, -1.23, 0.0, -0.89, 0.0, 0.0, 0.0, 0.0, 0.0, 0.0, 0.0, 1.33, 4.65, 5.55, 4.81, 2.39, 1.75, 2.99, 4.28, 5.18, 5.86, 5.77, 5.09, 4.0, 2.47, 2.76, 2.47, 2.51, 2.64, 2.76, 3.79, 3.22, 2.76, 2.95, 2.95, -6.35, -6.35, -6.35, -6.35, -6.64, -6.35, -6.35, -6.34, -6.34, -6.7, -6.98, -6.71, -6.97, -6.97, -6.96, -6.96, -6.96, -6.94, -6.94, -6.92, -6.92, -7.16, -6.9, -6.9, -7.13, -6.68, -6.46, -6.46, -6.46, -5.83, -5.2, -5.02, -4.6, -4.6, -4.63, -4.63, -4.63, -4.6, -4.57, -4.38, -3.94, -3.97, -4.44, -5.09, -5.72, -5.7, -4.4, -3.37, -2.61, -2.86, -3.2, -3.49, -3.22, -2.84, -2.84, -2.86, -1.8, -1.13, -0.59, -0.59, -0.59, -1.13, -1.11, -1.32, 0.0, 0.0, 0.0, 0.0, 0.0, 0.0, 0.0, -0.89, -1.32, -1.84, -1.2, 0.0, 2.44, 4.76, 5.38, 5.72, 5.3, 5.77, 5.1, 5.1, 4.92, 4.17, 3.02, 2.54, 2.6, 1.84, 1.63, 1.72, 2.76, 3.22, 2.99, 2.76, 2.76, 2.76, -6.65, -6.65, -6.35, -6.35, -6.64, -6.35, -6.35, -6.63, -6.34, -6.34, -6.98, -6.71, -6.97, -6.97, -6.7, -6.96, -6.96, -6.94, -6.94, -6.92, -6.92, -6.92, -6.9, -6.9, -6.9, -6.46, -6.46, -6.46, -5.8, -5.83, -5.0, -4.57, -4.6, -4.4, -4.63, -4.42, -4.63, -4.63, -4.6, -5.02, -4.57, -4.6, -4.63, -4.83, -5.06, -5.69, -4.57, -3.49, -2.26, -2.18, -2.23, -2.23, -2.51, -2.86, -2.86, -2.86, -1.6, -1.13, -0.59, -0.59, -0.59, -1.13, -1.11, -1.32, 0.0, 0.0, 0.0, 0.0, 0.82, 0.0, 0.0, -0.84, -1.65, -2.69, -2.44, -1.6, 0.0, 2.47, 4.91, 6.4, 6.52, 5.8, 4.39, 3.6, 3.47, 2.99, 2.34, 1.6, 0.89, 0.96, 0.82, 0.88, 1.83, 1.99, 2.76, 2.76, 2.76, 2.76, -6.65, -6.65, -6.35, -6.35, -6.35, -6.35, -6.35, -6.35, -6.34, -6.34, -6.98, -6.71, -6.71, -6.97, -6.7, -6.96, -6.96, -7.22, -6.94, -6.94, -6.92, -6.92, -7.16, -6.9, -6.9, -6.46, -6.46, -6.46, -5.8, -5.62, -5.23, -4.6, -4.16, -4.16, -3.97, -3.97, -4.42, -4.63, -4.6, -5.04, -5.02, -5.02, -5.04, -5.04, -5.29, -5.69, -5.23, -3.91, -2.97, -2.73, -2.32, -2.2, -2.0, -2.23, -2.84, -2.51, -1.84, -1.33, -1.13, -0.59, -0.59, -0.59, -1.11, -0.55, 0.0, 1.23, 1.23, 0.96, 0.89, 0.0, 0.0, -1.73, -2.54, -3.45, -2.57, -1.68, 0.0, 0.77, 3.25, 4.87, 6.4, 5.81, 4.38, 3.53, 2.14, 1.48, 0.71, 0.0, 0.0, 0.0, 0.0, 0.98, 1.08, 1.83, 1.83, 2.95, 2.95, 2.95, -6.65, -6.65, -6.35, -6.35, -6.35, -6.64, -6.35, -6.35, -6.63, -6.34, -6.7, -6.98, -6.71, -6.97, -6.97, -6.96, -6.96, -6.96, -6.94, -6.94, -7.19, -6.92, -6.92, -7.16, -6.9, -6.46, -6.46, -6.46, -5.8, -5.62, -5.23, -4.6, -4.16, -3.97, -4.0, -4.0, -3.97, -4.63, -4.63, -4.6, -5.04, -5.26, -5.26, -5.26, -5.26, -5.69, -5.67, -4.57, -3.94, -3.32, -2.89, -2.75, -2.8, -2.4, -2.86, -2.48, -2.23, -1.6, -1.13, -0.59, -0.59, -0.57, -1.11, -0.57, 0.0, 0.0, 0.0, 0.0, -0.82, 0.0, -1.73, -2.67, -2.67, -2.54, -2.44, -1.6, 0.0, 0.0, 1.6, 3.23, 4.71, 5.51, 4.07, 2.81, 2.14, 0.74, 0.0, -0.74, -0.89, 0.0, 0.0, 0.0, 1.08, 2.0, 2.0, 4.0, 4.0, 4.0, -6.34, -6.34, -6.35, -6.35, -6.35, -6.64, -6.35, -6.35, -6.35, -6.34, -6.7, -6.98, -6.71, -6.97, -6.97, -6.7, -6.96, -6.96, -6.96, -6.94, -6.94, -6.92, -6.92, -6.92, -6.9, -6.46, -6.46, -6.46, -6.25, -5.83, -5.23, -4.6, -4.63, -3.97, -4.0, -4.0, -4.0, -3.97, -4.63, -4.4, -4.6, -5.04, -5.26, -5.26, -5.26, -5.69, -5.67, -5.26, -4.4, -3.97, -3.32, -3.35, -3.37, -2.96, -2.82, -2.84, -2.44, -1.76, -1.11, -1.27, -0.57, -0.57, -0.59, -0.59, 0.0, 0.0, 0.0, -1.32, -2.66, -2.64, -2.67, -2.67, -2.4, -2.54, -1.67, -0.81, 0.0, 0.0, 1.58, 2.34, 3.23, 4.04, 4.07, 2.91, 2.22, 0.74, -0.73, -1.49, -1.05, 0.0, 0.0, 1.08, 2.0, 2.0, 3.16, 4.0, 4.0, 4.0, -6.34, -6.34, -6.65, -6.35, -6.35, -6.35, -6.35, -6.35, -6.35, -6.34, -6.7, -6.98, -6.71, -6.97, -6.97, -6.97, -6.96, -6.96, -6.96, -6.94, -6.94, -7.19, -6.92, -6.92, -6.92, -6.72, -6.25, -6.25, -6.25, -5.83, -5.44, -4.8, -4.4, -3.97, -4.0, -3.35, -3.52, -3.78, -3.97, -3.94, -4.4, -4.6, -5.26, -5.26, -5.26, -5.26, -5.26, -5.04, -4.4, -4.42, -3.97, -3.78, -3.35, -3.37, -3.42, -3.45, -3.04, -2.18, -1.73, -1.23, -1.11, -1.11, -1.13, -0.61, 0.0, 0.0, -1.23, -1.32, -2.66, -1.63, -1.65, -2.67, -1.75, -1.67, -1.67, -0.81, 0.0, 0.0, 0.79, 2.41, 2.44, 3.25, 4.16, 3.59, 2.93, 0.73, -1.49, -2.53, -0.98, 0.0, 0.0, 1.08, 2.0, 2.68, 3.58, 4.38, 4.38, 4.38, -6.34, -6.34, -6.34, -6.35, -6.35, -6.35, -6.64, -6.35, -6.35, -6.98, -6.7, -6.98, -6.98, -6.97, -6.97, -6.97, -6.7, -6.96, -6.96, -6.96, -6.94, -6.94, -6.92, -6.92, -6.92, -6.5, -6.5, -6.25, -6.5, -5.62, -5.44, -5.26, -4.6, -4.63, -4.2, -4.0, -4.0, -4.0, -3.97, -4.16, -3.94, -4.4, -4.6, -5.26, -5.02, -5.26, -5.26, -5.04, -4.4, -4.63, -3.97, -3.97, -4.0, -3.35, -3.4, -3.42, -2.77, -2.32, -2.18, -1.73, -1.11, -1.11, -1.13, -1.16, -1.0, -1.66, -0.88, -0.82, -0.89, -1.73, -1.65, -2.54, -1.75, -1.67, -1.67, -0.85, 0.0, 0.0, 0.82, 1.69, 1.63, 2.44, 4.1, 4.71, 3.68, 1.44, -2.97, -1.2, 0.0, 0.0, 0.0, 2.0, 2.0, 2.68, 4.0, 4.92, 4.92, 4.92, -6.34, -6.34, -6.34, -6.35, -6.35, -6.35, -6.64, -6.35, -6.35, -6.98, -6.7, -6.98, -6.98, -6.71, -6.97, -6.97, -6.97, -6.96, -6.96, -6.96, -6.94, -6.94, -7.19, -6.92, -6.92, -6.92, -6.5, -6.5, -6.5, -5.86, -5.89, -5.26, -4.6, -4.63, -4.2, -4.0, -4.0, -4.2, -3.97, -4.16, -3.94, -3.94, -4.6, -4.6, -5.26, -5.26, -5.26, -5.26, -4.6, -4.63, -4.63, -3.97, -3.97, -3.56, -3.37, -3.4, -2.96, -2.8, -2.36, -1.73, -1.76, -1.58, -1.8, -1.84, -1.84, -1.83, -1.83, -0.88, -1.84, -2.64, -2.67, -3.27, -3.45, -2.44, -1.67, -0.85, -0.85, 0.0, 0.0, 0.82, 1.69, 2.31, 3.29, 3.96, 3.32, 0.0, -1.79, 0.0, 0.0, 0.87, 0.87, 1.6, 2.41, 3.16, 4.34, 5.36, 5.36, 5.36, -6.34, -6.34, -6.34, -6.65, -6.35, -6.35, -6.35, -6.35, -6.35, -6.69, -6.7, -6.7, -6.98, -6.71, -6.97, -6.97, -6.97, -6.7, -6.96, -6.96, -6.96, -6.94, -6.94, -6.92, -6.92, -6.92, -6.5, -6.5, -6.27, -6.29, -5.89, -5.26, -5.04, -4.63, -4.66, -4.0, -4.0, -4.2, -3.97, -4.16, -3.94, -3.94, -3.94, -4.12, -4.6, -5.26, -5.26, -5.26, -5.04, -4.6, -4.63, -4.42, -4.42, -3.8, -3.37, -3.4, -3.42, -3.0, -2.36, -2.4, -2.22, -1.76, -1.8, -1.6, -2.51, -1.8, -1.99, -1.83, -1.84, -2.8, -3.55, -3.4, -4.5, -4.34, -2.44, -1.67, -0.85, 0.0, 0.0, 0.0, 0.82, 1.62, 1.56, 1.64, 1.5, 0.78, 0.0, 1.34, 1.58, 1.74, 1.98, 2.53, 3.35, 3.9, 4.92, 5.29, 5.29, 5.29, -6.34, -6.34, -6.34, -6.65, -6.35, -6.35, -6.35, -6.64, -6.35, -6.69, -6.98, -6.7, -6.98, -6.98, -6.97, -6.97, -6.97, -6.97, -6.96, -6.96, -6.96, -6.94, -6.94, -6.94, -6.92, -6.92, -6.92, -6.5, -6.27, -6.29, -5.89, -5.69, -5.04, -4.63, -4.66, -4.0, -4.0, -4.2, -3.97, -4.16, -3.94, -3.94, -4.12, -4.12, -4.12, -4.6, -4.6, -5.04, -5.04, -5.04, -5.06, -4.63, -4.42, -4.0, -4.03, -3.6, -3.42, -3.0, -2.82, -2.4, -2.2, -2.22, -2.22, -2.23, -2.23, -2.48, -2.6, -1.7, -1.7, -1.84, -2.64, -4.42, -4.83, -6.01, -4.34, -3.32, -2.44, -1.67, -0.85, 0.0, 0.0, 0.82, 0.79, 0.83, 0.0, 0.0, 0.0, 1.79, 1.79, 1.9, 2.6, 2.6, 3.39, 4.02, 4.82, 5.29, 5.29, 5.29, -6.34, -6.34, -6.34, -6.34, -6.35, -6.35, -6.35, -6.64, -6.35, -6.69, -6.98, -6.7, -6.98, -6.98, -6.71, -6.97, -6.97, -6.97, -6.7, -6.96, -6.96, -7.22, -6.94, -6.94, -6.94, -6.92, -6.92, -6.5, -6.27, -6.29, -5.89, -5.92, -5.04, -5.06, -4.66, -4.44, -4.0, -4.2, -3.97, -4.16, -3.94, -4.12, -4.12, -4.12, -4.12, -3.94, -4.4, -5.04, -5.04, -5.04, -5.29, -5.06, -4.66, -4.44, -4.45, -3.81, -3.4, -3.21, -2.8, -2.61, -2.2, -2.44, -2.22, -2.48, -2.48, -2.86, -2.2, -1.19, -0.96, -0.82, -2.51, -3.4, -3.4, -3.55, -4.16, -5.1, -4.12, -2.69, -1.67, -0.85, 0.0, 0.0, 0.8, 0.8, 0.0, -0.81, 0.0, 1.79, 2.24, 2.24, 2.97, 3.13, 4.02, 4.47, 4.82, 5.51, 5.51, 5.51, -6.34, -6.34, -6.34, -6.34, -6.65, -6.35, -6.35, -6.35, -6.64, -6.69, -6.98, -6.7, -6.98, -6.98, -6.98, -6.97, -6.97, -6.97, -6.97, -6.96, -6.96, -6.96, -6.94, -6.94, -6.94, -6.94, -7.19, -6.92, -6.53, -6.29, -6.31, -5.92, -5.04, -5.06, -4.66, -4.66, -4.44, -4.2, -4.42, -4.63, -4.4, -4.6, -4.12, -4.12, -4.12, -3.94, -3.94, -4.63, -5.29, -5.29, -5.29, -5.06, -5.08, -5.08, -4.69, -4.45, -4.05, -3.42, -3.45, -2.82, -2.84, -2.86, -2.44, -2.22, -2.48, -3.15, -2.86, -1.57, -0.96, -0.89, -1.73, -1.65, -1.65, -0.89, -0.89, -0.89, -3.4, -2.54, -1.67, -0.85, -0.85, 0.0, 0.79, 1.56, 0.0, -1.2, -0.0, 2.21, 2.4, 2.68, 3.13, 3.58, 4.02, 4.34, 4.98, 5.2, 5.2, 5.2, -6.34, -6.34, -6.34, -6.34, -6.65, -6.35, -6.35, -6.35, -6.64, -6.69, -6.98, -6.98, -6.7, -6.98, -6.98, -6.71, -6.97, -6.97, -6.97, -7.24, -6.96, -6.96, -7.22, -6.94, -6.94, -6.94, -6.94, -6.94, -6.94, -6.29, -6.31, -5.92, -5.7, -5.06, -5.32, -4.66, -4.44, -4.66, -4.42, -4.63, -4.4, -4.6, -4.6, -4.6, -4.6, -4.12, -3.94, -4.63, -5.29, -5.29, -5.7, -5.7, -5.08, -5.34, -5.09, -5.09, -4.46, -4.08, -3.45, -3.47, -2.84, -2.61, -2.86, -2.6, -2.86, -2.86, -2.86, -1.76, -1.23, -1.72, -0.95, -0.89, -0.84, 0.0, 0.0, 0.0, -0.84, -1.75, -1.67, -0.85, -0.85, 0.0, 1.68, 2.39, 0.89, 0.0, 1.9, 2.53, 2.98, 2.98, 3.47, 3.47, 4.15, 4.98, 5.75, 6.21, 6.21, 6.21, -6.34, -6.34, -6.34, -6.34, -6.65, -6.35, -6.35, -6.35, -6.97, -6.69, -6.69, -6.98, -6.7, -6.98, -6.98, -6.98, -6.97, -6.97, -6.97, -6.97, -6.96, -6.96, -7.22, -6.94, -6.94, -6.94, -6.94, -6.94, -6.94, -6.56, -6.31, -5.69, -5.7, -5.29, -5.32, -4.66, -4.66, -4.66, -4.66, -4.63, -4.63, -4.6, -4.6, -4.6, -4.6, -4.6, -4.4, -4.63, -5.06, -5.29, -5.7, -5.72, -5.72, -5.72, -5.72, -5.09, -5.1, -4.73, -4.1, -3.47, -3.49, -2.84, -2.86, -2.86, -2.86, -2.86, -2.48, -2.23, -1.8, -1.84, -1.84, -1.84, -1.63, -0.83, -0.89, -0.84, -1.65, -1.75, -1.67, -1.67, 0.0, 0.0, 0.81, 1.62, 1.62, 0.79, 2.21, 2.53, 2.41, 2.84, 3.22, 4.22, 4.84, 5.82, 6.8, 7.35, 7.35, 7.35, -6.34, -6.34, -6.34, -6.34, -6.65, -6.35, -6.35, -6.35, -6.97, -6.97, -6.69, -6.98, -6.7, -6.98, -6.98, -6.98, -6.98, -6.97, -6.97, -6.97, -7.24, -6.96, -6.96, -6.94, -6.94, -6.94, -6.94, -6.94, -6.94, -6.56, -6.58, -6.08, -5.7, -5.7, -5.32, -5.08, -4.66, -4.66, -4.66, -4.63, -4.63, -4.6, -4.6, -4.6, -4.8, -4.6, -4.6, -4.63, -5.06, -5.29, -5.7, -5.72, -5.72, -5.72, -5.72, -5.72, -5.72, -5.1, -4.75, -4.12, -3.49, -3.22, -3.12, -2.86, -2.86, -2.86, -2.23, -2.51, -1.8, -2.76, -1.84, -1.72, -0.89, -0.89, -1.63, -1.73, -2.67, -2.67, -3.27, -1.75, 0.0, 0.0, 0.81, 0.82, 0.79, 0.85, 1.05, 2.4, 1.66, 1.66, 3.35, 4.43, 5.43, 6.82, 7.42, 7.42, 7.42, 7.42, -6.92, -6.92, -6.34, -6.34, -6.65, -6.65, -6.67, -6.67, -6.67, -6.97, -6.69, -6.98, -6.98, -6.98, -6.98, -6.98, -6.98, -7.26, -6.97, -6.97, -7.24, -6.96, -7.33, -7.6, -7.22, -6.94, -6.94, -6.94, -6.7, -6.56, -6.33, -6.08, -5.7, -5.7, -5.32, -5.08, -4.66, -4.66, -4.66, -4.63, -4.63, -4.6, -4.6, -4.6, -5.26, -5.26, -5.04, -5.29, -5.06, -5.06, -5.7, -5.72, -6.08, -5.72, -5.72, -5.72, -5.72, -5.38, -5.08, -4.45, -4.12, -3.49, -3.49, -2.86, -2.86, -2.86, -2.51, -2.23, -2.23, -1.76, -0.55, 0.0, 0.0, 0.0, -0.83, -1.73, -1.65, -1.65, -0.84, -0.89, 0.0, 0.0, 0.0, 0.0, 0.0, 0.0, 0.0, -0.0, 0.81, 1.6, 3.0, 4.56, 5.69, 6.79, 7.44, 7.82, 7.82, 7.82, -6.92, -6.92, -6.64, -6.64, -6.95, -6.95, -6.67, -6.67, -6.67, -6.97, -6.69, -6.98, -6.98, -6.98, -6.98, -6.98, -6.98, -6.98, -6.97, -6.97, -6.97, -7.61, -7.33, -7.33, -7.6, -7.22, -7.22, -7.22, -6.96, -6.31, -6.33, -6.34, -6.08, -5.7, -5.72, -5.08, -5.08, -4.66, -4.66, -4.63, -4.63, -4.84, -4.6, -5.26, -5.26, -5.26, -5.04, -5.29, -5.06, -5.06, -5.72, -6.08, -6.35, -6.35, -6.34, -6.04, -5.72, -5.71, -5.38, -4.75, -3.84, -3.83, -3.49, -3.2, -2.86, -2.86, -2.84, -2.23, -2.23, -1.8, -0.57, 0.0, 0.0, 0.0, 0.0, -0.83, -0.89, -0.84, 0.0, -0.84, 0.0, 0.0, -0.81, 0.0, 0.0, 0.0, 0.0, -2.24, -0.0, 0.74, 2.82, 4.37, 5.21, 6.32, 7.06, 7.32, 7.32, 7.32, -6.92, -6.92, -6.64, -6.64, -6.95, -6.95, -6.95, -6.67, -6.67, -6.97, -6.97, -6.69, -6.98, -6.98, -6.98, -6.98, -6.98, -6.98, -7.26, -6.97, -7.33, -7.61, -7.33, -7.33, -7.33, -6.96, -6.96, -6.96, -6.96, -6.7, -6.33, -6.34, -6.08, -5.98, -5.72, -5.32, -5.08, -5.08, -5.08, -5.06, -5.06, -5.29, -5.04, -5.26, -5.26, -5.26, -5.26, -5.29, -5.29, -5.46, -5.72, -6.08, -6.35, -6.35, -6.34, -6.04, -6.32, -5.71, -5.69, -5.08, -4.45, -4.12, -3.83, -3.49, -3.48, -2.86, -2.84, -2.51, -2.23, -1.84, -1.13, 0.0, 0.0, 0.0, 0.0, -0.82, -0.95, -0.89, -0.89, -0.84, -1.75, -0.85, -0.81, -0.78, -0.82, 0.0, 0.0, -2.23, -1.99, -0.0, 2.57, 3.32, 4.6, 5.94, 6.68, 7.06, 7.06, 7.06, -6.92, -6.92, -6.64, -6.64, -6.95, -6.95, -6.95, -6.67, -6.67, -6.97, -6.97, -6.69, -6.98, -6.98, -6.98, -6.98, -6.98, -6.98, -7.26, -6.97, -7.33, -7.61, -7.33, -7.33, -7.33, -6.96, -6.96, -6.96, -6.96, -6.7, -6.33, -6.34, -6.08, -5.98, -5.72, -5.32, -5.08, -5.08, -5.08, -5.06, -5.06, -5.29, -5.04, -5.26, -5.26, -5.26, -5.26, -5.29, -5.29, -5.46, -5.72, -6.08, -6.35, -6.35, -6.34, -6.04, -6.32, -5.71, -5.69, -5.08, -4.45, -4.12, -3.83, -3.49, -3.48, -2.86, -2.84, -2.51, -2.23, -1.84, -1.13, 0.0, 0.0, 0.0, 0.0, -0.82, -0.89, -0.89, -0.89, -0.84, -1.75, -1.67, -1.75, -1.68, -0.85, 0.0, 0.0, -0.89, -2.23, -0.0, 1.75, 2.47, 4.2, 5.21, 6.64, 7.06, 7.06, 7.06]}]